[{"header": {"dx": 0.06612293990616946, "dy": 0.0552356325346848, "nx": 98, "ny": 59, "la1": 35.046912555036876, "la2": 31.78801023549047, "lo1": -121.43107172385933, "lo2": -114.95102361305473, "refTime": "2026041722", "parameterCategory": 1, "parameterNumber": 2}, "data": [5.72, 5.69, 5.65, 5.35, 5.29, 5.21, 4.84, 4.84, 5.08, 5.08, 4.9, 5.51, 8.0, 8.05, 8.49, 8.49, 8.44, 7.98, 8.49, 8.49, 7.89, 7.89, 7.1, 7.54, 7.6, 7.15, 6.64, 4.6, 1.08, -1.08, -1.08, 0.0, 0.0, 0.0, 2.0, 1.99, 1.84, 1.84, 1.84, 2.64, 2.8, 3.49, 3.48, 3.58, -3.48, -2.84, -3.35, -3.72, -4.24, -4.02, -3.58, -3.13, -3.13, -3.13, -3.13, -2.21, 0.0, 0.0, 0.0, 2.68, -2.68, -2.68, 0.0, 0.0, 0.0, 0.0, 0.0, -1.19, 0.0, -1.05, -1.05, -0.96, 0.0, 0.0, 0.0, 0.0, 1.03, 1.6, 1.84, 1.96, 1.84, 3.6, 4.5, 5.53, 6.79, 7.07, 8.17, 8.48, 8.56, 8.77, 8.29, 7.54, 6.71, 5.2, 2.48, -0.0, -1.6, -2.4, 5.44, 5.38, 5.37, 5.01, 4.94, 4.84, 4.65, 4.93, 4.55, 4.69, 4.8, 6.7, 7.54, 7.6, 8.94, 8.94, 8.05, 8.94, 8.49, 7.54, 8.38, 7.89, 7.89, 8.38, 7.1, 7.15, 7.1, 5.6, 1.99, 0.0, 0.0, 0.0, 0.0, 0.0, 1.05, 0.96, 0.95, 0.0, 0.0, 0.96, 1.27, 3.58, -4.02, -2.84, -3.35, -3.35, -3.72, -4.24, -3.82, -3.58, -3.58, -3.58, -3.58, -2.24, -1.26, 0.0, 0.0, 0.0, 0.0, -2.68, -2.68, -2.68, 0.0, 0.0, 0.0, 0.0, 0.0, -1.08, -1.19, -1.19, -1.19, -1.19, 0.0, 0.0, 0.0, 0.0, 1.03, 1.6, 1.84, 1.96, 1.84, 3.6, 4.5, 5.53, 6.79, 7.07, 8.17, 8.48, 8.56, 8.77, 8.29, 7.54, 6.71, 5.2, 2.48, -0.0, -1.6, -2.4, 5.1, 5.08, 5.06, 4.74, 4.71, 4.65, 4.65, 4.93, 4.55, 4.8, 4.8, 4.6, 7.54, 7.6, 8.05, 8.49, 8.49, 8.49, 8.49, 8.94, 7.54, 8.38, 7.89, 7.45, 7.94, 7.1, 7.15, 6.0, 2.99, 1.05, 0.0, 0.0, 0.0, 0.0, 0.0, 0.0, -1.01, -2.99, -3.72, -3.13, -2.8, -3.35, -3.72, -3.72, -3.35, -3.35, -4.24, -3.82, -3.58, -3.58, -3.13, -3.58, -3.13, -2.21, 0.0, 0.0, 0.0, 0.0, -1.9, -2.21, -2.8, -2.21, 0.0, 0.0, 0.0, -1.08, -1.08, -1.08, -1.41, -2.48, -2.0, -1.08, 0.0, 0.0, 0.0, 0.0, 0.95, 0.95, 1.63, 1.73, 1.95, 2.83, 3.8, 4.5, 5.3, 6.06, 7.03, 8.17, 8.3, 8.56, 8.06, 7.85, 7.15, 6.17, 3.93, 1.6, -2.68, -2.2, 4.83, 4.75, 4.75, 4.74, 4.71, 4.71, 4.65, 5.08, 4.69, 4.8, 4.55, 4.93, 7.37, 7.6, 8.05, 8.49, 8.49, 8.49, 8.49, 8.49, 8.05, 8.49, 8.05, 6.65, 6.71, 8.05, 7.15, 6.45, 4.74, 1.98, 1.05, 1.05, 0.0, 0.0, 0.0, -1.58, -4.29, -6.51, -4.92, -4.34, -4.0, -3.72, -3.72, -3.82, -3.82, -3.82, -3.82, -4.02, -3.58, -3.13, -2.68, -2.8, -2.21, -1.4, 0.0, 0.0, 0.0, -1.9, -2.21, -2.21, -2.53, -1.8, 0.0, 0.0, -1.08, -1.08, -2.2, -2.0, -2.68, -2.0, -2.2, -1.19, 0.0, 0.0, 0.96, 1.84, 1.84, 1.01, 1.84, 1.84, 2.4, 2.54, 3.45, 4.5, 4.5, 5.53, 6.01, 7.15, 7.82, 7.82, 7.76, 7.81, 7.1, 6.26, 4.98, 3.72, 2.24, -2.48, 4.46, 4.47, 4.47, 4.45, 4.43, 4.71, 4.65, 4.84, 5.08, 5.08, 5.08, 5.21, 7.12, 7.98, 8.05, 8.49, 8.05, 8.49, 8.49, 8.49, 8.94, 7.89, 7.45, 7.45, 6.26, 7.15, 7.6, 7.45, 4.56, 2.64, 2.12, 1.98, 2.12, 1.84, 0.0, -2.4, -5.81, -6.71, -4.92, -4.47, -4.47, -4.02, -4.02, -3.58, -4.02, -4.02, -3.58, -3.58, -3.13, -2.8, -2.21, -1.4, -1.6, 0.0, 0.0, 0.0, -1.4, -2.21, -3.2, -3.2, -2.53, -1.27, -1.08, -1.19, -1.19, -2.2, -2.2, -3.22, -1.99, -1.99, -1.14, -1.05, -0.96, 0.0, 2.16, 2.6, 1.98, 0.95, 0.89, 1.55, 2.4, 2.54, 3.45, 3.45, 4.12, 4.5, 5.36, 5.89, 6.32, 6.45, 6.55, 6.99, 6.45, 5.81, 5.94, 4.8, 2.68, -2.23, 4.46, 4.47, 4.47, 4.45, 4.43, 4.71, 4.37, 4.84, 5.47, 5.6, 5.37, 5.29, 7.2, 7.81, 8.44, 8.45, 8.9, 8.94, 8.05, 7.54, 7.31, 6.16, 6.4, 6.94, 7.01, 7.15, 6.71, 6.26, 5.21, 3.4, 1.73, 2.67, 4.42, 4.98, 3.39, -1.4, -4.34, -5.36, -5.36, -4.34, -3.82, -4.8, -3.82, -3.82, -4.02, -3.58, -3.2, -3.2, -1.6, -1.6, -1.6, -1.6, -1.6, -1.6, -1.4, -2.21, -2.21, -2.21, -2.53, -2.84, -2.84, -1.41, -1.19, -0.96, -2.4, -3.22, -2.4, -1.99, -0.96, -1.03, -0.89, -1.03, 0.0, 0.0, 0.95, 1.84, 3.0, 1.84, 0.89, 0.94, 2.54, 3.45, 3.63, 3.63, 3.63, 4.56, 4.56, 4.34, 4.5, 4.87, 5.24, 5.7, 5.36, 5.94, 6.45, 5.73, 2.68, -2.53, 4.46, 4.08, 4.1, 4.45, 4.43, 4.43, 4.37, 5.21, 5.37, 5.75, 5.49, 5.29, 7.35, 7.85, 9.29, 8.33, 8.49, 7.54, 6.0, 4.43, 4.43, 5.24, 5.37, 5.37, 6.4, 6.0, 6.07, 6.07, 6.51, 5.7, 3.4, 2.82, 3.91, 3.58, -0.0, -2.2, -4.4, -6.26, -6.26, -4.02, -4.47, -4.47, -4.92, -4.92, -4.4, -3.82, -2.84, -1.27, -1.27, -2.2, -2.2, -1.27, -1.27, -1.6, -2.21, -2.8, -2.8, -3.2, -3.39, -3.72, -2.48, -1.19, -1.05, -1.99, -1.99, -2.99, -2.16, -0.96, 0.0, 0.0, -0.95, 0.0, 0.0, 0.0, 0.89, 0.89, 1.84, 1.84, 1.73, 0.89, 2.69, 3.63, 3.63, 3.63, 3.49, 3.7, 4.56, 4.5, 3.4, 2.99, 3.13, 3.58, 4.89, 6.0, 6.64, 5.81, 2.68, -2.53, 4.05, 4.08, 4.1, 4.12, 4.45, 4.43, 4.71, 4.94, 5.86, 5.86, 5.49, 4.94, 6.99, 7.98, 8.49, 6.26, 5.2, 2.8, 1.72, 1.84, 2.8, 2.76, 2.99, 2.8, 2.8, 4.74, 4.74, 5.72, 7.28, 7.89, 5.81, 4.47, 4.02, -0.0, -1.66, -3.79, -4.6, -4.98, -5.94, -4.8, -3.48, -3.16, -3.16, -4.47, -4.92, -3.48, -2.23, -2.48, -1.08, -2.4, -2.23, -2.23, -2.84, -2.84, -2.53, -3.2, -3.39, -3.82, -3.82, -3.35, -2.48, -1.19, -0.96, -2.2, -2.2, -1.99, -0.96, 0.0, 0.0, 0.0, 0.0, 0.0, 0.0, 0.0, 0.0, 0.0, 0.89, 1.73, 1.84, 1.75, 1.49, 2.99, 4.71, 4.71, 3.8, 4.6, 5.49, 5.53, 3.72, 3.2, 1.8, 2.6, 4.89, 6.45, 6.71, 5.36, 2.24, -2.84, 4.05, 4.08, 4.1, 3.85, 4.12, 4.43, 4.43, 5.35, 5.93, 5.59, 5.01, 4.43, 6.9, 6.64, 6.61, 3.49, -0.0, -0.0, -0.0, -0.0, 1.4, -0.0, -0.0, 0.95, 1.84, 3.2, 3.2, 4.56, 6.44, 6.8, 3.47, -0.0, -0.0, 1.63, 0.96, -1.08, -3.72, -5.06, -5.58, -4.43, -4.11, -2.2, -3.16, -4.02, -3.16, -1.6, -2.4, -2.4, -2.2, -2.48, -2.4, -2.48, -2.48, -3.16, -3.72, -3.72, -4.34, -4.34, -3.72, -2.48, -2.0, -1.19, -1.08, -1.08, -1.19, 0.0, 0.0, 0.0, 0.0, 0.0, 0.0, 0.0, 0.0, 0.0, 0.0, 0.0, 0.0, 0.94, 1.84, 0.84, 0.89, 2.99, 4.71, 5.59, 5.3, 5.59, 6.32, 7.15, 5.82, 4.38, 3.35, 4.54, 5.59, 6.71, 6.71, 4.47, 2.24, -3.6, 3.81, 3.83, 3.84, 3.85, 4.12, 4.45, 5.06, 5.65, 5.65, 5.59, 5.01, 4.45, 4.65, 4.6, 6.61, 2.16, -0.0, -0.0, -0.0, -0.0, -0.0, -0.0, -0.0, 1.49, 1.49, 1.4, 1.4, 2.82, 4.56, 5.06, 3.2, -0.0, 1.32, 2.99, 4.56, 3.47, -0.0, -0.0, -0.0, -1.98, -2.23, -1.9, 2.24, 0.0, -1.9, -2.21, -2.53, -2.48, -2.95, -2.2, -2.2, -2.2, -2.2, -2.95, -3.22, -4.29, -4.29, -4.29, -3.93, -2.95, -2.2, -1.08, -1.7, 0.0, 0.0, 0.0, 0.0, 0.0, 0.0, 0.0, 0.0, 0.0, 0.0, 0.0, 0.0, 0.0, 0.89, 0.94, 0.79, 0.76, 0.76, 1.58, 4.46, 5.59, 6.39, 6.39, 7.07, 8.14, 7.89, 7.11, 6.28, 6.07, 6.71, 7.15, 6.71, 5.26, -0.0, -3.2, 4.03, 4.05, 4.08, 4.1, 4.12, 4.75, 5.37, 5.37, 5.65, 5.06, 5.01, 4.45, 5.01, 5.21, 6.61, 3.72, -0.0, -0.0, 0.63, 1.2, 2.0, 1.19, 2.4, 2.16, 1.4, 1.63, -0.0, 1.52, 3.0, 5.06, 4.56, 3.77, 3.17, 4.22, 4.74, 6.9, 6.9, 6.64, 5.89, 4.42, 1.27, 1.79, 0.0, 3.13, 3.58, 2.24, 2.24, -1.27, -2.2, -1.99, -2.16, -2.99, -2.99, -2.8, -3.72, -4.74, -5.58, -4.98, -4.29, -3.22, -2.2, -1.41, -1.27, 0.0, 0.0, 0.0, 0.0, 0.0, 0.0, 0.0, 0.0, -0.87, -0.87, 0.0, 0.0, 0.0, 0.89, 1.01, 0.94, 0.0, 0.0, 0.8, 2.31, 5.59, 6.39, 7.07, 8.0, 8.4, 8.36, 8.05, 7.56, 8.05, 7.15, 7.1, 7.54, 6.45, 3.72, 1.79, 4.03, 4.05, 4.08, 4.1, 4.47, 4.75, 5.08, 5.38, 5.08, 5.06, 4.45, 4.45, 5.01, 5.01, 4.8, 3.54, 2.68, 1.79, 1.34, 1.79, 1.73, 2.17, 2.0, 4.43, 1.41, -0.0, -0.0, 0.57, 2.48, 5.21, 6.08, 5.69, 4.94, 5.37, 6.18, 7.2, 8.55, 9.42, 10.04, 10.63, 8.56, 4.47, 2.68, 2.2, 1.84, 2.2, 3.79, 4.02, 0.0, -2.4, -2.2, -1.99, -1.99, -1.99, -3.22, -4.29, -5.6, -5.6, -4.6, -3.72, -2.48, -2.48, 0.0, 0.0, 0.0, 0.0, -1.05, -1.05, 0.0, 0.0, -0.98, -0.98, -0.98, 0.0, 0.0, 0.0, 0.89, 0.89, 0.78, 0.83, 0.0, 0.94, 1.67, 4.34, 5.59, 7.06, 7.67, 8.14, 8.19, 8.01, 8.05, 7.6, 7.15, 7.54, 7.55, 7.54, 6.45, 4.24, 4.0, 3.81, 3.83, 4.08, 4.47, 5.08, 5.38, 5.38, 5.08, 5.06, 4.75, 4.45, 4.45, 4.74, 4.94, 4.9, 3.87, 2.68, 2.24, 1.79, 1.79, 2.24, 2.24, 2.17, 1.2, -0.0, -0.0, 0.0, 0.0, 1.2, 4.29, 5.37, 5.69, 6.18, 6.82, 7.82, 8.24, 9.03, 9.9, 11.18, 10.89, 7.1, 3.72, 1.05, 1.73, 1.73, 3.2, 3.72, 4.11, 3.48, 2.24, 1.79, 1.79, 1.79, -0.0, -0.0, -3.16, -6.26, -5.26, -4.24, -2.53, -1.41, 0.0, 0.0, 1.14, 0.0, 0.0, 0.0, 0.0, 0.0, -0.96, -1.14, 0.0, 0.0, 0.0, 0.0, 1.03, 0.96, 0.82, 0.82, 0.83, 0.89, 1.58, 2.83, 4.34, 6.18, 6.73, 7.07, 7.2, 7.71, 7.42, 7.11, 7.15, 7.6, 7.6, 8.05, 7.55, 6.64, 3.52, 3.56, 4.05, 4.08, 4.47, 5.1, 5.1, 5.08, 5.08, 4.47, 4.75, 4.45, 4.43, 4.43, 4.37, 4.55, 4.11, 3.39, 2.63, 2.17, 2.17, 2.24, 2.24, 2.24, 1.34, 0.0, 0.0, -0.63, 0.0, 0.0, 1.26, 4.11, 6.28, 6.18, 6.82, 6.79, 7.44, 8.43, 9.66, 10.58, 9.68, 6.21, 3.0, 1.49, 1.49, 1.49, 1.84, 3.2, 3.2, 3.2, 3.72, 3.47, 3.47, 3.47, 3.0, 4.01, 3.72, -3.48, -6.71, -4.47, -2.21, 0.0, 0.0, 2.4, 2.84, 3.72, 3.35, 2.23, 1.84, 0.0, 0.0, 0.0, 0.0, 0.0, 0.0, 0.0, 0.0, 0.0, 0.0, 0.0, 0.95, 1.73, 1.65, 2.4, 3.15, 4.34, 5.36, 5.53, 6.08, 6.44, 6.4, 6.7, 6.51, 7.15, 7.15, 7.6, 8.05, 7.6, 3.32, 3.35, 3.81, 4.05, 4.73, 5.1, 5.1, 4.81, 4.75, 4.47, 4.45, 3.84, 3.83, 3.79, 3.48, 3.43, 3.6, 2.97, 3.07, 2.63, 2.17, 2.24, 2.24, 2.68, 2.17, 0.6, 0.0, -0.6, -0.63, 0.0, -0.0, 1.61, 6.08, 6.63, 6.63, 6.64, 7.56, 7.81, 9.63, 7.53, 5.06, 2.54, 1.49, 1.49, 1.32, 1.32, 1.49, 1.4, 3.0, 3.0, 3.72, 3.72, 3.72, 3.72, 4.74, 6.08, 5.72, 0.98, -3.35, -5.36, -1.9, -0.0, 3.16, 3.79, 4.43, 5.58, 6.4, 6.94, 6.71, 4.43, 0.96, 0.0, 0.0, 0.0, -0.89, -0.89, 0.0, 0.0, 0.0, 0.0, 0.89, 1.84, 1.63, 2.35, 3.2, 4.5, 3.6, 3.6, 3.79, 5.37, 5.49, 5.82, 5.75, 6.07, 6.65, 7.6, 8.05, 8.05, 3.49, 3.52, 4.03, 4.46, 4.46, 5.1, 5.1, 4.47, 4.47, 4.45, 3.84, 3.83, 3.49, 3.48, 3.43, 3.14, 3.07, 2.91, 2.91, 2.91, 2.6, 2.17, 2.24, 3.07, 2.97, 2.91, 1.49, 0.63, 0.0, -0.0, -0.0, 1.84, 3.43, 5.37, 5.31, 4.46, 5.89, 6.79, 6.63, 4.56, 0.89, 0.89, 1.4, 1.4, 1.32, 1.32, 2.99, 2.82, 4.56, 4.56, 4.29, 5.06, 4.74, 4.74, 5.72, 6.4, 6.8, 5.72, 3.72, 1.52, 1.99, 3.0, 3.2, 3.2, 3.2, 4.56, 4.74, 7.28, 7.47, 7.6, 3.48, 0.0, -3.2, -3.6, -2.16, -1.98, -1.03, -0.96, 0.0, 0.0, 1.03, 1.98, 1.84, 2.82, 3.55, 4.58, 4.42, 3.77, 2.82, 3.97, 5.06, 4.84, 5.2, 6.02, 6.07, 6.51, 7.11, 7.11, 3.49, 3.52, 4.03, 4.45, 4.71, 4.83, 4.73, 4.75, 4.1, 3.84, 3.83, 3.79, 3.2, 3.43, 3.14, 2.79, 3.07, 2.68, 2.91, 2.91, 2.4, 2.17, 2.68, 3.53, 4.11, 4.4, 3.87, 2.17, 0.57, -0.0, 1.11, 2.22, 2.6, 3.91, 3.2, 3.09, 2.83, 2.99, 2.99, 1.32, 1.4, 0.89, 1.2, 1.84, 2.69, 2.69, 3.8, 4.14, 5.69, 6.01, 5.69, 5.69, 5.69, 5.69, 6.01, 6.63, 7.28, 6.63, 6.32, 6.64, 6.64, 5.31, 3.0, 3.47, 3.47, 3.22, 5.06, 6.4, 6.94, 6.71, 4.4, -0.0, -0.96, -1.19, -3.16, -3.0, -1.98, -1.84, -0.96, 0.0, 0.95, 1.96, 1.96, 2.35, 2.82, 3.55, 5.06, 3.97, 3.72, 3.72, 3.63, 3.63, 4.19, 4.84, 5.6, 5.34, 6.07, 6.07, 3.3, 3.32, 4.0, 4.45, 4.71, 4.46, 4.47, 4.1, 3.85, 4.12, 3.49, 3.49, 3.48, 3.16, 3.14, 2.79, 2.53, 2.21, 2.68, 3.07, 2.68, 2.24, 2.49, 3.13, 3.7, 3.6, 2.68, 1.9, 1.0, 0.55, 1.7, 2.2, 2.2, 2.2, 2.18, 1.73, 0.89, 1.49, 1.49, 1.49, 1.32, 1.4, 1.32, 2.54, 2.69, 4.96, 5.59, 6.63, 6.63, 6.01, 5.03, 4.14, 4.37, 5.31, 5.31, 6.32, 6.98, 6.98, 6.64, 7.56, 8.93, 7.81, 6.4, 3.79, 3.79, 3.48, 4.29, 6.51, 6.94, 6.71, 5.64, 2.68, 1.99, 1.14, -2.68, -3.22, -3.0, -1.84, -0.95, 0.0, 0.89, 1.84, 1.75, 2.4, 2.67, 4.42, 5.69, 4.58, 3.72, 3.72, 3.22, 2.8, 2.4, 3.35, 4.54, 4.98, 4.84, 4.84, 3.45, 3.97, 4.0, 4.45, 4.71, 4.46, 4.47, 4.1, 4.12, 3.49, 3.49, 3.2, 3.16, 3.16, 3.09, 4.29, 1.24, 1.58, 2.5, 2.79, 2.15, 1.2, 1.61, 2.95, 2.21, -0.0, 0.57, 1.98, 2.82, 2.36, 2.36, 2.18, 2.4, 1.73, 1.73, 1.19, 0.55, 1.11, 1.84, 3.2, 1.98, 2.12, 2.82, 2.99, 3.8, 6.32, 6.98, 6.63, 5.69, 4.14, 4.14, 4.14, 4.14, 4.37, 5.59, 6.32, 6.98, 6.64, 7.56, 8.54, 9.63, 9.46, 7.45, 4.24, 2.84, 3.72, 4.8, 5.94, 6.64, 8.06, 7.28, 6.21, 5.21, 4.89, 2.53, 0.0, -1.84, -1.96, -0.89, 0.0, 1.84, 1.75, 1.84, 1.58, 2.54, 3.6, 4.42, 4.65, 4.29, 4.01, 3.91, 1.98, 0.96, 2.4, 4.11, 4.11, 4.11, 4.11, 3.45, 3.97, 4.0, 4.24, 4.71, 4.46, 4.08, 4.1, 3.47, 3.49, 3.49, 2.86, 2.86, 3.16, 3.43, 2.91, 1.86, 1.86, 4.77, 4.34, 2.24, -0.0, -0.0, -0.0, -0.0, -0.0, 0.88, 1.08, 2.4, 2.84, 2.18, 2.18, 1.7, 1.7, 1.07, 1.19, 1.23, 1.27, 1.6, 2.23, 2.48, 2.6, 2.86, 2.84, 3.76, 6.63, 6.63, 6.28, 4.56, 2.99, 2.54, 2.54, 4.14, 4.37, 4.42, 5.53, 7.56, 6.39, 7.44, 9.04, 9.76, 9.39, 8.05, 5.36, 2.53, 3.72, 4.4, 5.51, 6.45, 7.12, 7.53, 7.53, 6.94, 6.2, 4.92, 1.27, 0.0, 0.0, 0.0, 1.01, 1.01, 0.94, 0.89, 0.89, 1.75, 2.26, 3.2, 3.9, 4.29, 4.43, 4.89, 2.99, 1.05, 1.14, 2.53, 4.11, 3.22, 3.22, 3.94, 3.97, 4.2, 4.0, 4.45, 4.05, 4.08, 3.45, 3.22, 3.08, 2.86, 2.86, 2.86, 2.86, 3.43, 3.6, 2.91, 3.07, 3.13, 4.34, 1.13, -0.0, -0.0, -0.0, -0.0, 0.53, 1.16, 1.6, 2.23, 2.22, 1.73, 1.73, 1.7, 1.16, 1.16, 1.19, 1.08, 1.23, 1.8, 1.8, 2.23, 2.48, 2.22, 2.4, 2.82, 5.59, 5.69, 4.56, 1.49, 1.25, 1.32, 2.54, 2.99, 4.14, 5.31, 5.24, 6.32, 6.68, 8.54, 9.03, 9.39, 9.39, 7.15, 5.36, 2.84, 3.72, 4.4, 5.4, 5.94, 6.45, 6.94, 7.42, 7.6, 6.0, 4.4, 2.23, 0.98, 1.41, 1.08, 1.05, 0.96, 0.0, 0.0, 0.0, 0.94, 1.84, 2.82, 3.0, 3.9, 4.74, 5.58, 4.65, 1.19, 0.0, 1.66, 3.48, 3.48, 3.48, 3.91, 3.94, 3.97, 4.0, 4.03, 4.05, 3.84, 3.21, 2.8, 2.82, 2.84, 2.86, 2.86, 2.86, 3.43, 3.35, 3.6, 3.39, 3.53, 3.13, 2.0, 0.99, 0.6, -0.0, -0.0, 0.57, 0.65, 1.16, 1.13, 1.11, 1.23, 1.08, 1.19, 1.19, 1.07, 1.19, 1.19, 1.19, 1.76, 1.76, 1.76, 1.76, 1.73, 1.7, 1.67, 3.22, 5.69, 1.4, -0.0, 1.25, 1.32, 2.54, 2.99, 4.14, 4.14, 5.31, 5.53, 7.06, 8.54, 9.03, 8.49, 7.85, 5.51, 3.58, 2.84, 3.48, 3.93, 4.98, 5.4, 6.51, 7.45, 7.94, 5.4, 1.14, 0.0, 0.99, 2.21, 3.39, 4.02, 4.02, 3.82, 0.0, 0.0, 0.0, 0.94, 0.94, 1.84, 2.67, 3.2, 3.9, 4.81, 5.2, 3.16, 0.98, 1.8, 3.48, 4.65, 4.65, 3.91, 3.91, 3.94, 4.0, 4.03, 4.05, 3.42, 3.21, 2.8, 2.82, 2.84, 2.61, 2.86, 2.86, 2.86, 3.43, 3.35, 3.6, 3.2, 3.07, 2.24, 1.2, 0.4, -0.0, -0.0, -0.0, -0.0, 0.65, 0.61, 0.59, 0.57, 0.63, 0.55, 1.08, 1.19, 1.19, 1.19, 1.19, 1.19, 1.73, 1.73, 1.73, 1.73, 1.19, 1.16, 1.67, 2.66, -0.0, -0.0, -0.0, 1.32, 2.54, 2.99, 4.14, 4.14, 4.14, 4.68, 6.32, 8.18, 7.63, 8.05, 6.0, 3.35, 2.21, 1.08, 2.4, 3.22, 4.29, 4.98, 4.98, 6.07, 4.66, -4.11, -4.74, 0.0, 0.0, 2.21, 3.39, 4.02, 4.82, 4.85, 4.02, 0.0, 0.0, 0.0, 0.94, 1.84, 1.84, 2.82, 1.84, 3.47, 4.84, 4.22, 1.98, 1.8, 3.16, 4.19, 4.19, 3.91, 3.91, 3.94, 3.97, 4.03, 4.05, 3.64, 3.21, 2.8, 2.82, 2.61, 2.84, 2.61, 2.86, 2.86, 2.86, 2.84, 3.14, 2.79, 2.5, 1.7, 0.89, 0.63, -0.0, -0.0, -0.0, -0.0, -0.0, -0.0, 0.51, 0.59, 0.57, 0.57, 0.55, 0.55, 1.08, 1.19, 1.19, 1.19, 1.19, 1.19, 1.73, 1.76, 1.23, 0.55, -0.0, -0.0, -0.0, -0.0, -0.0, 1.4, 2.54, 2.99, 2.99, 2.99, 3.91, 4.58, 5.69, 6.98, 6.63, 5.51, 4.34, 2.53, -0.0, 1.05, 1.84, 3.22, 5.06, 5.37, 5.73, 6.26, 4.02, -5.6, -4.43, -1.98, 0.0, 1.84, 3.79, 4.8, 3.58, 4.85, 5.29, 3.39, 0.0, 0.0, 0.89, 0.89, 1.84, 1.98, 1.03, 1.98, 3.35, 4.22, 3.22, 2.84, 2.68, 4.19, 4.19, 3.91, 3.91, 3.94, 3.97, 4.0, 4.03, 3.4, 2.96, 3.0, 2.8, 2.82, 2.18, 2.4, 2.61, 2.86, 2.86, 2.86, 2.84, 2.79, 2.5, 1.2, 0.45, -0.0, -0.0, -0.0, -0.0, -0.0, -0.0, -0.0, -0.0, -0.0, -0.0, -0.0, 0.57, 0.63, 0.55, 1.08, 1.19, 1.19, 1.19, 1.19, 1.73, 1.76, 1.8, -0.0, -0.57, -0.57, -0.0, -0.0, 0.54, 1.16, 2.54, 2.99, 2.99, 4.14, 3.91, 4.56, 4.74, 4.83, 4.83, 5.69, 4.74, 3.72, 1.98, 1.03, 1.84, 3.72, 4.74, 5.58, 6.26, 7.15, 4.47, -4.11, -3.72, -1.03, 0.0, 0.0, 2.0, 2.4, 2.53, 3.58, 4.82, 4.38, 1.98, 0.0, 0.0, 0.89, 1.03, 0.96, 0.88, 1.03, 1.6, 2.76, 3.22, 3.16, 3.48, 4.19, 4.19, 3.91, 3.91, 4.12, 4.16, 4.0, 3.8, 3.81, 3.42, 3.0, 2.8, 2.82, 2.36, 2.4, 2.4, 2.2, 2.86, 2.86, 2.58, 2.84, 2.15, 1.2, 0.45, 0.0, -0.0, -0.0, -0.0, -0.0, -0.0, -0.0, -0.0, -0.0, -0.0, -0.0, -0.0, 0.57, 0.63, 0.55, 0.55, 0.55, 0.61, 1.19, 1.73, 2.44, 1.84, 0.53, -0.51, -0.57, -0.55, -0.0, 0.61, 1.19, 1.73, 2.82, 2.99, 4.14, 5.03, 4.56, 4.29, 3.91, 4.83, 6.01, 7.33, 5.37, 3.72, 1.84, 2.67, 3.77, 4.87, 6.0, 6.2, 7.15, 7.6, 1.6, -1.84, -0.95, 0.0, 0.0, 0.81, 1.27, 1.6, 2.68, 1.98, 2.68, 3.13, 0.88, 0.0, 0.0, 0.0, 1.14, 0.88, 1.98, 0.78, 1.6, 2.4, 2.76, 3.79, 3.79, 3.79, 4.08, 4.08, 4.12, 4.16, 3.97, 4.0, 3.81, 3.4, 2.77, 2.8, 2.8, 2.36, 2.18, 2.4, 2.4, 2.2, 2.22, 2.86, 2.51, 1.88, 0.6, 0.45, 0.0, 0.45, -0.63, -0.95, -0.6, -0.57, -0.54, -0.65, -0.0, -0.61, -0.0, -0.0, -0.0, -0.0, -0.0, -0.0, -0.0, 0.57, 0.57, 1.08, 2.2, 2.23, 0.71, -0.53, -1.76, -1.19, -0.0, 0.61, 1.19, 1.73, 2.44, 2.44, 3.97, 4.87, 5.69, 3.2, 3.0, 4.58, 7.28, 6.82, 8.0, 4.42, 4.0, 3.6, 4.5, 6.18, 6.57, 6.64, 7.15, 7.15, 5.7, 1.27, 0.0, 0.0, 0.0, 0.0, 0.0, 0.0, -2.84, -1.72, -0.0, 2.95, 3.13, 1.4, 0.0, 0.0, 0.0, 0.96, 1.7, 1.84, 0.95, 0.95, 1.84, 2.76, 3.35, 3.35, 4.08, 4.08, 4.12, 3.94, 3.97, 4.0, 4.03, 3.4, 3.42, 3.0, 2.8, 2.36, 2.36, 2.18, 2.4, 2.2, 2.44, 2.22, 2.23, 1.88, 0.6, 0.0, 0.45, -0.45, -0.89, -1.2, -0.95, -1.49, -1.24, -1.0, -0.65, -0.53, -0.61, -0.51, -0.0, -0.0, -0.0, -0.0, -0.0, -0.0, 0.59, 0.57, 1.73, 2.51, 1.26, -1.2, -2.23, -1.7, -0.0, 0.61, 1.19, 1.76, 2.22, 2.48, 2.22, 3.72, 4.56, 3.91, 3.55, 4.58, 6.18, 7.2, 6.82, 5.53, 4.34, 5.46, 6.11, 6.6, 7.12, 7.54, 7.6, 8.05, 7.54, 4.92, -0.0, -0.0, -1.8, -1.98, -2.16, -3.82, -4.98, -2.2, -0.55, 1.6, 2.76, 2.68, 3.35, 3.6, 0.96, 0.96, 1.84, 2.16, 0.89, 0.0, 0.82, 1.7, 2.76, 2.76, 4.08, 4.08, 4.12, 3.94, 3.97, 4.0, 4.03, 3.6, 3.4, 3.42, 2.8, 2.8, 2.36, 2.18, 2.18, 2.4, 2.2, 2.44, 1.8, 1.16, 0.57, 0.0, 0.0, -0.63, -1.34, -1.79, -2.24, -2.17, -1.86, -1.9, -1.2, -1.2, -0.61, -0.61, -0.51, -0.0, -0.0, -0.0, -0.0, -0.0, 0.59, 0.51, 0.55, 1.98, 1.99, -0.0, -1.88, -1.7, -0.0, 0.61, 1.23, 1.76, 2.48, 2.23, 2.23, 2.48, 4.29, 3.91, 4.58, 5.37, 6.18, 6.8, 6.11, 5.36, 5.21, 6.01, 6.55, 6.6, 6.94, 7.15, 7.6, 8.0, 7.6, 5.37, 0.89, -0.0, -1.19, -3.2, -2.99, -4.98, -4.98, -2.0, -1.11, -0.0, 1.72, 2.6, 3.22, 4.6, 4.47, 2.84, 2.2, 2.2, 0.88, 0.0, 0.0, 1.7, 2.4, 2.4, 4.57, 4.57, 4.12, 3.94, 3.97, 4.0, 4.03, 3.37, 3.4, 3.42, 3.21, 2.8, 2.16, 2.36, 2.18, 2.4, 2.4, 2.2, 1.76, 1.16, 0.0, 0.0, 0.0, -0.8, -1.26, -1.7, -2.24, -2.68, -2.63, -2.15, -1.2, -1.2, -1.2, -0.61, -0.61, -0.61, -0.0, -0.0, -0.0, -0.0, 0.61, -0.0, -0.0, 0.55, 1.73, 1.83, -0.0, -0.59, -0.0, 1.23, 1.58, 1.8, 1.8, 1.8, 2.23, 2.23, 2.86, 3.48, 4.58, 4.58, 5.49, 6.18, 6.01, 5.89, 6.45, 6.55, 6.18, 6.9, 5.94, 6.26, 6.2, 6.2, 6.71, 5.95, 1.98, -0.0, -0.0, -0.0, -3.58, -5.26, -5.36, -1.9, -0.99, -0.0, 0.59, 2.6, 2.98, 3.79, 4.84, 5.09, 4.47, 3.82, 1.98, 0.0, 0.0, 0.88, 1.7, 1.7, 4.57, 4.57, 4.6, 4.4, 3.97, 4.0, 4.03, 3.81, 3.4, 3.64, 3.42, 3.45, 2.8, 2.16, 2.36, 2.18, 2.4, 2.4, 1.73, 1.13, 0.0, 0.0, 0.0, -0.57, -0.6, -0.89, -0.89, -1.79, -2.68, -2.91, -1.9, -1.2, -1.2, -1.2, -0.53, -0.53, -0.53, -0.0, -0.0, -0.0, 0.53, -0.0, -0.0, -0.0, -0.0, -0.0, -0.0, -0.0, 0.63, 1.11, 1.8, 1.58, 1.76, 1.8, 2.48, 2.48, 2.86, 2.86, 3.48, 5.06, 5.49, 6.11, 7.15, 7.2, 7.2, 7.12, 6.16, 6.0, 6.0, 6.51, 5.36, 4.82, 5.09, 5.6, 3.48, -1.19, -0.96, -0.0, -2.2, -5.36, -4.92, -4.02, -1.26, -0.53, -0.0, 1.0, 1.88, 4.19, 5.09, 5.59, 5.29, 4.47, 3.58, 1.4, 0.0, 0.0, 1.7, 1.7, 4.57, 4.57, 4.6, 4.4, 4.42, 4.2, 4.0, 4.03, 4.05, 3.4, 3.42, 3.21, 3.45, 2.8, 2.16, 2.36, 2.18, 2.18, 1.73, 1.11, 0.61, 0.0, 0.0, 0.0, 0.0, 0.0, 0.63, -0.0, -2.8, -3.07, -2.15, -1.24, -1.2, -1.2, -1.2, -0.65, -0.53, -0.0, -0.0, -0.0, 0.53, 0.53, -0.0, -0.59, -0.59, -0.0, -0.0, 0.57, 1.11, 1.11, 1.58, 1.76, 1.76, 2.22, 2.22, 2.22, 2.86, 3.15, 3.15, 3.48, 5.49, 6.55, 7.2, 7.03, 7.53, 7.37, 6.64, 7.15, 6.71, 7.01, 6.0, 5.58, 6.23, 6.14, 2.53, -3.16, -3.22, -1.99, -2.99, -5.09, -5.36, -4.38, -3.13, -0.95, -0.0, 0.54, 2.15, 2.91, 5.81, 4.92, 4.47, 4.47, 4.02, 2.4, 0.0, 0.0, 1.83, 1.83, 4.76, 4.76, 4.8, 4.6, 4.63, 4.66, 4.0, 4.03, 4.05, 3.83, 4.08, 3.42, 3.21, 3.0, 2.8, 2.16, 2.36, 2.36, 2.18, 1.57, 1.13, 0.61, 0.53, 0.0, 0.0, -0.0, -0.0, -0.0, -0.71, -3.35, -2.4, -1.58, -1.49, -1.2, -1.2, -0.65, -0.65, -0.0, -0.0, -0.0, 0.53, 1.0, 0.53, -0.0, -0.61, -0.51, -0.0, 0.59, 1.27, 1.11, 1.76, 1.76, 1.76, 2.22, 2.44, 2.44, 2.86, 2.86, 3.2, 3.48, 4.07, 6.18, 7.6, 6.6, 7.12, 7.37, 7.1, 6.64, 7.6, 7.94, 7.2, 7.2, 7.12, 6.2, 1.9, -5.26, -4.98, -3.93, -4.6, -5.09, -4.92, -4.15, -2.84, -2.8, -0.45, 0.6, 2.0, 3.09, 6.26, 5.26, 4.24, 3.58, 3.58, 3.13, 2.8, 0.0, 0.88, 0.88, 5.23, 5.23, 5.02, 4.6, 4.63, 4.42, 4.44, 4.03, 3.81, 4.05, 3.83, 4.08, 3.42, 3.21, 2.8, 2.8, 2.8, 2.8, 2.36, 1.73, 1.23, 1.13, 0.61, 0.57, 0.0, 0.0, -0.63, -0.8, -1.24, -1.86, -1.86, -1.86, -1.58, -1.2, -1.2, -1.2, -0.53, -0.53, -0.0, -0.0, 0.61, 1.16, 1.2, -0.0, -0.61, -0.59, -0.0, -0.0, 1.11, 1.11, 1.76, 1.76, 1.76, 2.22, 2.44, 2.44, 2.86, 2.86, 3.49, 3.79, 6.28, 6.28, 6.28, 6.9, 6.21, 6.57, 6.57, 6.88, 7.45, 7.63, 7.2, 8.0, 8.06, 6.94, 2.84, -5.36, -6.26, -5.81, -5.29, -4.85, -4.02, -3.6, -3.16, -2.84, -2.4, 0.45, 1.79, 3.09, 6.02, 4.98, 3.72, 2.53, 2.8, 3.13, 2.97, 1.13, 0.88, 0.88, 5.23, 5.23, 5.02, 5.04, 4.63, 4.63, 4.66, 4.69, 4.45, 4.05, 4.05, 4.08, 4.08, 3.42, 3.42, 2.77, 3.0, 2.8, 2.8, 2.36, 1.73, 1.11, 1.13, 0.54, 0.0, 0.0, -0.89, -1.34, -1.7, -1.7, -1.49, -1.86, -1.58, -1.9, -1.2, -1.2, -0.53, -0.53, -0.0, -0.0, 0.61, 1.33, 1.88, 0.57, -1.2, -1.27, -0.57, -0.0, 0.57, 1.23, 1.76, 1.76, 1.76, 2.22, 2.22, 2.44, 2.86, 2.86, 3.48, 4.07, 4.07, 6.63, 6.63, 6.9, 6.9, 7.47, 6.57, 7.12, 7.12, 7.12, 6.8, 8.48, 8.48, 8.29, 5.94, -3.13, -6.64, -6.2, -5.81, -5.36, -4.02, -2.98, -2.84, -2.68, -1.98, 0.0, 1.86, 5.2, 5.2, 4.98, 3.93, 2.48, 1.13, 2.21, 2.97, 2.21, 0.98, 0.98, 5.23, 5.23, 5.02, 5.26, 5.04, 5.06, 4.66, 4.69, 4.45, 4.71, 4.46, 4.05, 4.08, 4.08, 4.08, 3.42, 3.21, 3.0, 2.8, 3.04, 2.18, 1.57, 1.27, 0.53, 0.0, 0.0, -0.63, -1.34, -1.34, -1.79, -1.7, -1.49, -1.58, -1.9, -1.2, -1.2, -1.0, -0.53, -0.0, -0.0, -0.0, 1.13, 2.23, 1.24, -0.54, -1.6, -0.57, -0.0, 0.57, 1.23, 1.76, 1.76, 1.76, 2.22, 2.22, 2.22, 2.86, 3.15, 3.48, 3.73, 4.07, 4.65, 7.6, 7.12, 7.12, 8.06, 7.12, 7.81, 7.85, 7.37, 8.06, 7.12, 8.91, 8.33, 8.0, 3.58, -4.47, -5.81, -5.81, -4.92, -3.9, -2.98, -2.84, -2.68, -2.0, 0.0, 2.95, 4.54, 5.6, 5.2, 4.29, 2.0, 0.0, 0.0, 1.4, 2.21, 1.98, 1.98, 5.23, 5.23, 5.02, 5.26, 5.04, 5.06, 5.08, 5.08, 4.69, 4.45, 4.71, 4.46, 4.46, 4.73, 4.08, 4.08, 3.42, 3.42, 3.45, 2.8, 2.82, 2.4, 1.76, 1.13, 0.65, 0.0, 0.0, -0.95, -1.34, -1.34, -1.2, -1.6, -1.86, -1.58, -1.61, -1.2, -1.0, -0.61, -0.0, -0.0, -0.0, 0.57, 1.76, 2.0, -0.0, -1.13, -0.57, -0.0, 0.63, 1.23, 1.76, 1.76, 1.76, 2.22, 2.48, 2.48, 2.86, 2.86, 3.48, 3.48, 3.73, 4.07, 7.6, 6.99, 7.12, 8.06, 6.94, 7.54, 7.55, 7.54, 7.37, 7.12, 8.48, 9.29, 7.15, 3.58, -3.2, -4.77, -5.36, -4.82, -3.6, -2.84, -2.84, -2.68, -0.88, 0.0, 2.76, 4.54, 5.6, 5.94, 4.98, 2.95, 0.0, 0.0, 0.0, 1.13, 1.98, 1.98, 5.67, 5.67, 5.67, 5.26, 5.04, 5.29, 5.06, 5.08, 5.09, 5.09, 5.1, 5.1, 5.1, 4.46, 4.73, 4.73, 4.08, 3.42, 3.42, 3.45, 3.22, 2.82, 2.2, 1.58, 0.61, 0.0, 0.0, -0.6, -0.63, -0.89, -1.34, -1.2, -1.26, -1.24, -1.24, -1.2, -1.2, -0.61, -0.61, -0.0, -0.0, -0.0, 0.55, 1.84, 0.59, -0.0, -0.57, -0.0, 0.63, 1.11, 1.76, 1.76, 1.76, 2.48, 2.48, 2.48, 2.86, 2.86, 3.48, 3.48, 3.73, 4.07, 7.28, 6.57, 7.12, 8.38, 7.94, 7.37, 7.42, 7.37, 6.7, 7.47, 7.45, 7.55, 6.26, 2.24, -4.77, -4.98, -4.92, -4.38, -3.58, -2.84, -2.84, -2.0, -0.88, 0.0, 2.4, 4.11, 6.0, 6.45, 5.94, 4.29, 0.0, -1.08, 0.0, 0.0, 1.98, 1.98, 5.67, 5.67, 5.67, 5.69, 5.26, 5.29, 5.06, 5.32, 5.08, 5.09, 5.09, 5.36, 5.1, 5.1, 4.83, 4.46, 4.46, 4.05, 4.08, 3.84, 3.45, 3.22, 2.82, 2.2, 1.27, 0.61, 0.0, 0.0, 0.0, -0.89, -0.89, -1.2, -1.26, -1.26, -1.24, -1.2, -1.2, -0.61, -0.61, -0.0, -0.0, -0.0, -0.0, 1.08, 1.98, 0.57, -0.0, -0.0, 1.11, 1.58, 1.58, 1.58, 1.8, 2.48, 2.48, 2.48, 2.86, 2.86, 3.48, 3.48, 3.48, 4.07, 4.55, 7.6, 7.63, 7.63, 7.12, 7.12, 7.53, 6.8, 6.57, 6.45, 7.15, 8.05, 6.71, -2.68, -5.81, -6.26, -5.36, -4.38, -3.22, -3.58, -2.84, -2.23, -0.98, 0.0, 1.7, 3.91, 4.89, 5.6, 5.94, 4.6, 1.27, -1.27, -1.41, 0.0, 0.98, 1.98, 5.89, 5.89, 5.67, 5.69, 5.69, 5.7, 5.29, 5.32, 5.08, 5.46, 5.72, 5.45, 5.36, 5.1, 5.1, 5.1, 4.46, 4.46, 3.83, 4.08, 3.84, 4.1, 3.47, 2.82, 1.73, 1.27, 0.61, 0.0, 0.0, 0.0, -0.45, -0.89, -0.95, -0.8, -0.57, -0.54, -0.65, -0.53, -0.61, -0.0, -0.0, -0.0, -0.0, 0.59, 0.63, 1.03, 0.55, 0.63, 1.11, 1.8, 1.8, 1.8, 1.8, 2.23, 2.23, 2.48, 2.86, 3.16, 3.16, 3.48, 3.48, 3.48, 6.28, 6.9, 7.28, 6.63, 6.8, 7.6, 6.18, 6.18, 6.57, 6.64, 7.15, 7.15, 7.6, 4.92, -4.47, -6.71, -5.73, -4.77, -4.0, -3.58, -3.58, -2.23, 0.0, 0.88, 1.84, 3.47, 3.91, 4.54, 5.2, 4.98, 2.23, -1.27, -1.27, 0.0, 0.0, 0.0, 5.89, 5.89, 5.67, 5.92, 5.69, 5.7, 5.7, 5.06, 5.72, 5.72, 5.72, 5.72, 5.72, 5.72, 5.72, 5.1, 5.1, 5.1, 4.71, 4.46, 4.47, 4.47, 4.1, 3.47, 2.84, 1.76, 1.27, 1.16, 0.71, 0.0, 0.45, 0.45, -0.0, -0.0, -0.57, -0.71, -0.54, -0.65, -0.0, -0.0, -0.0, -0.0, -0.0, -0.0, 0.59, 0.57, 1.23, 1.11, 1.11, 1.8, 1.8, 1.8, 2.23, 2.23, 2.23, 2.58, 3.16, 3.16, 3.16, 3.48, 3.48, 3.48, 4.07, 6.63, 6.63, 6.63, 6.63, 6.9, 5.49, 6.18, 6.57, 6.64, 7.6, 6.26, 7.45, 6.8, 3.48, -3.82, -5.94, -5.4, -4.0, -3.58, -3.58, -1.8, 0.0, 0.96, 2.6, 2.8, 3.63, 4.11, 4.98, 4.98, 2.84, 0.0, 0.0, 0.0, 0.0, 0.0, 6.31, 6.31, 6.07, 5.92, 5.69, 5.95, 5.7, 5.7, 5.72, 5.72, 5.46, 5.72, 5.72, 5.72, 5.72, 5.72, 5.72, 5.1, 5.1, 4.71, 4.46, 4.73, 4.47, 4.1, 3.47, 2.84, 2.22, 1.6, 1.2, 0.57, 0.63, 0.45, -0.0, -0.0, -0.0, -0.0, -0.0, -0.0, -0.0, -0.0, -0.0, -0.0, 0.61, 0.61, 0.51, 0.59, 0.66, 1.11, 1.27, 1.8, 1.8, 2.23, 2.23, 2.23, 2.23, 2.84, 3.16, 3.16, 3.16, 3.43, 3.48, 3.48, 3.73, 5.69, 6.63, 6.63, 6.63, 6.63, 5.84, 6.21, 6.16, 6.64, 6.71, 6.71, 7.08, 7.12, 6.82, 4.11, -3.13, -5.37, -4.98, -4.0, -3.58, -2.0, 0.0, 2.0, 3.22, 3.63, 4.11, 3.79, 4.29, 4.77, 3.39, -1.6, 0.0, 0.0, 0.0, 0.0, 6.31, 6.31, 6.07, 6.33, 6.08, 5.95, 5.95, 5.7, 5.98, 5.72, 5.72, 6.0, 5.72, 5.72, 6.01, 5.72, 5.72, 5.72, 5.72, 5.1, 5.1, 4.83, 5.1, 4.75, 4.47, 3.84, 2.84, 2.22, 2.23, 1.61, 1.26, 0.63, 0.89, 0.63, 0.6, -0.0, -0.0, -0.0, -0.0, -0.0, -0.0, 0.61, 0.61, 1.16, 1.13, 0.59, 0.59, 1.11, 1.27, 1.8, 2.23, 2.23, 2.23, 2.23, 2.23, 3.16, 3.16, 3.16, 3.16, 3.16, 3.43, 3.48, 3.48, 4.07, 6.63, 6.63, 7.6, 6.8, 6.6, 6.57, 7.89, 6.64, 7.1, 7.54, 7.54, 7.37, 7.53, 7.6, 5.4, -2.8, -4.98, -4.22, -2.68, -2.0, 0.0, 0.98, 3.16, 4.29, 4.6, 4.29, 5.51, 3.58, 3.13, 0.0, 0.0, 0.0, 0.0, 0.0, 6.31, 6.31, 6.31, 6.33, 6.33, 6.08, 6.34, 5.7, 5.7, 5.72, 5.72, 5.72, 6.35, 6.06, 6.06, 6.34, 6.34, 5.72, 5.72, 5.72, 5.1, 5.1, 5.38, 5.1, 5.08, 4.47, 3.84, 3.49, 3.15, 2.23, 2.15, 1.7, 1.34, 1.2, 1.26, 0.99, 0.71, 0.54, 0.65, 0.53, 0.61, 0.61, 1.16, 1.16, 1.13, 1.13, 1.27, 1.27, 1.27, 1.8, 2.23, 2.23, 2.23, 2.23, 2.51, 3.16, 3.16, 3.16, 3.16, 3.16, 3.43, 3.43, 3.78, 3.73, 4.65, 7.6, 8.06, 7.12, 7.37, 7.37, 7.54, 7.54, 8.0, 8.0, 7.85, 7.85, 7.85, 7.53, 7.2, 5.26, -1.6, -4.11, -3.79, -2.68, -0.98, 0.0, 1.98, 4.0, 5.26, 6.07, 4.92, 4.02, 3.58, 2.21, 0.0, 0.0, 0.0, 0.0, 6.31, 6.31, 6.31, 6.33, 6.33, 6.33, 6.34, 6.34, 6.08, 5.98, 5.72, 5.72, 6.35, 6.35, 6.35, 6.06, 6.34, 6.34, 6.04, 5.72, 5.72, 5.72, 5.44, 5.71, 5.41, 5.38, 5.06, 4.74, 4.11, 3.48, 3.14, 2.8, 2.24, 1.79, 2.12, 1.86, 1.58, 1.2, 1.2, 1.0, 1.16, 1.16, 1.16, 1.61, 1.6, 1.8, 1.27, 1.27, 1.27, 1.8, 2.23, 2.23, 2.23, 2.23, 2.84, 3.16, 3.16, 3.16, 3.16, 3.16, 3.43, 3.43, 3.43, 3.48, 4.29, 7.6, 7.63, 7.47, 7.47, 6.6, 7.37, 7.85, 7.85, 8.29, 8.44, 7.85, 7.85, 7.53, 7.76, 8.06, 4.47, -2.95, -4.89, -2.68, -1.8, 0.0, 1.13, 2.98, 4.77, 4.47, 4.47, 4.02, 3.82, 3.82, 2.53, 1.27, 1.27, 1.27, 6.31, 6.31, 6.31, 6.58, 6.33, 6.33, 6.34, 6.34, 6.08, 6.35, 6.35, 6.08, 6.08, 6.35, 6.35, 6.35, 6.34, 6.34, 6.34, 6.34, 6.34, 5.72, 5.72, 5.72, 5.71, 6.01, 5.98, 5.06, 5.29, 4.65, 4.0, 3.6, 3.07, 2.68, 2.63, 2.4, 2.4, 2.15, 1.61, 1.88, 1.61, 1.61, 1.61, 1.84, 1.84, 1.8, 1.8, 1.27, 1.27, 1.8, 2.23, 2.51, 2.84, 2.51, 2.84, 3.16, 3.16, 3.16, 3.16, 3.16, 3.43, 3.43, 3.43, 3.78, 4.07, 7.28, 6.63, 6.63, 6.63, 7.2, 7.53, 7.63, 8.29, 8.44, 8.0, 8.0, 7.37, 7.53, 7.76, 8.3, 7.1, 0.0, -4.89, -3.48, -2.0, -0.87, 0.0, 1.98, 3.9, 3.58, 4.47, 4.47, 4.34, 3.82, 3.35, 2.23, 2.23, 2.23, 6.7, 6.7, 6.7, 6.97, 6.33, 6.33, 6.61, 6.34, 6.34, 6.35, 6.35, 6.35, 6.08, 6.35, 6.35, 6.35, 6.35, 6.65, 6.34, 6.34, 6.34, 6.34, 6.04, 6.04, 6.32, 6.01, 6.28, 5.98, 5.59, 5.29, 5.08, 4.4, 3.87, 3.58, 3.58, 3.09, 2.91, 2.68, 2.5, 2.21, 2.21, 1.88, 1.61, 2.23, 2.23, 2.23, 1.8, 1.27, 1.13, 1.8, 2.51, 2.84, 2.84, 2.84, 2.84, 3.16, 3.16, 3.16, 3.16, 3.16, 3.43, 3.43, 3.43, 3.43, 3.48, 5.49, 6.11, 6.45, 7.2, 7.2, 7.53, 7.85, 8.0, 8.0, 8.0, 7.37, 7.81, 8.06, 7.76, 8.56, 8.29, 4.24, -2.4, -4.11, -2.95, -1.8, 0.99, 1.98, 1.98, 2.53, 3.39, 4.47, 4.47, 4.47, 3.82, 3.35, 3.35, 3.35, 6.7, 6.96, 6.7, 6.97, 6.97, 6.33, 6.33, 6.34, 6.34, 6.34, 6.35, 6.35, 6.35, 6.35, 6.35, 6.35, 6.67, 6.95, 6.95, 6.64, 6.34, 6.34, 6.34, 6.34, 6.32, 6.32, 6.28, 6.23, 6.15, 5.86, 5.75, 5.31, 4.77, 4.44, 4.02, 3.98, 3.97, 3.39, 3.07, 3.07, 2.53, 2.53, 2.53, 2.53, 2.23, 2.51, 1.8, 1.8, 1.6, 1.84, 2.51, 2.84, 3.16, 2.84, 2.84, 2.84, 3.16, 3.16, 3.16, 3.16, 3.43, 3.43, 3.43, 3.43, 3.43, 4.74, 5.84, 6.11, 6.79, 6.82, 7.2, 7.12, 7.54, 8.05, 8.0, 7.85, 8.06, 8.06, 8.48, 8.56, 8.33, 6.71, 0.0, -3.48, -4.65, -1.13, 0.0, 2.21, 2.53, 1.98, 1.13, 2.21, 3.47, 4.47, 4.34, 3.72, 3.72, 3.72, 6.96, 6.96, 6.7, 6.97, 6.97, 6.71, 6.33, 6.61, 6.34, 6.34, 6.63, 6.35, 6.35, 6.35, 6.64, 6.67, 6.67, 6.67, 6.95, 6.95, 6.95, 6.64, 6.34, 6.64, 6.32, 6.32, 6.87, 6.79, 6.51, 6.41, 6.28, 5.81, 5.57, 5.33, 4.92, 4.47, 4.44, 3.87, 3.82, 3.2, 3.07, 2.79, 2.79, 2.79, 2.79, 2.84, 2.23, 1.8, 1.8, 1.84, 2.51, 2.84, 3.16, 2.84, 2.84, 2.84, 3.43, 3.43, 3.43, 3.16, 3.16, 3.43, 3.43, 3.43, 3.16, 3.43, 5.58, 5.37, 6.11, 6.45, 6.45, 6.82, 6.8, 6.57, 8.0, 7.63, 7.76, 8.17, 8.29, 8.44, 8.44, 7.6, 3.39, -3.39, -3.93, -1.13, 0.0, 1.4, 2.21, 2.53, 0.99, 0.99, 2.84, 4.34, 4.34, 4.34, 4.34, 4.34, 6.96, 6.96, 6.97, 6.97, 6.97, 6.71, 6.71, 6.61, 6.34, 6.34, 6.34, 6.63, 6.35, 6.69, 6.97, 6.97, 6.97, 6.67, 6.95, 6.95, 6.95, 6.95, 6.92, 6.92, 6.59, 6.87, 6.87, 6.79, 6.7, 6.95, 6.28, 6.1, 6.04, 5.7, 5.33, 4.92, 4.92, 4.44, 3.87, 3.82, 3.6, 3.2, 2.79, 2.79, 3.14, 2.84, 3.16, 2.23, 2.23, 2.23, 2.51, 2.84, 3.43, 3.16, 2.84, 3.14, 3.35, 3.43, 3.43, 3.43, 3.43, 3.43, 3.43, 3.43, 3.43, 3.43, 4.89, 4.74, 5.84, 6.55, 6.55, 6.55, 6.55, 6.11, 6.6, 6.55, 7.2, 7.76, 8.29, 8.0, 8.0, 7.54, 3.82, -5.94, -3.93, -1.8, 0.0, 0.0, 2.21, 3.39, 2.21, 1.4, 2.84, 3.72, 3.72, 3.72, 3.72, 3.72, 6.96, 6.96, 6.97, 6.97, 6.97, 6.71, 6.71, 6.98, 6.98, 6.7, 6.7, 6.98, 6.98, 6.69, 6.69, 6.97, 6.97, 6.97, 6.67, 6.95, 6.95, 6.95, 6.92, 6.92, 6.59, 6.87, 6.87, 6.79, 7.07, 6.95, 6.8, 6.6, 6.3, 6.16, 5.78, 5.36, 4.92, 4.92, 4.44, 3.98, 3.87, 3.6, 3.6, 3.35, 3.35, 3.35, 3.16, 2.86, 2.23, 2.23, 2.84, 2.84, 3.43, 3.43, 3.72, 3.35, 3.35, 3.72, 3.72, 3.72, 3.35, 3.35, 3.43, 3.43, 3.43, 3.35, 2.84, 3.43, 6.21, 6.8, 7.2, 7.2, 7.2, 6.79, 6.45, 5.69, 6.55, 7.12, 7.37, 7.1, 6.94, 7.12, -4.47, -6.45, -3.48, -1.8, -1.13, 0.0, 1.4, 2.21, 2.21, 2.21, 2.53, 3.72, 3.72, 3.82, 3.82, 3.82, 6.96, 6.96, 6.97, 6.97, 6.97, 6.97, 6.71, 6.98, 6.98, 6.7, 6.7, 6.7, 6.98, 6.98, 6.69, 6.97, 6.97, 6.97, 6.67, 6.95, 6.95, 6.95, 6.92, 6.92, 6.87, 6.87, 7.15, 6.79, 7.07, 6.95, 6.8, 7.01, 6.79, 6.47, 6.16, 5.78, 5.36, 4.92, 4.47, 4.44, 3.98, 3.87, 3.6, 3.6, 3.6, 3.35, 3.09, 2.84, 2.51, 2.84, 2.84, 3.43, 3.43, 3.43, 3.72, 3.72, 3.72, 3.72, 3.72, 3.35, 3.35, 3.35, 3.35, 3.35, 3.72, 3.72, 3.35, 3.6, 6.16, 7.12, 7.53, 7.2, 7.2, 7.2, 6.82, 7.2, 6.6, 6.99, 6.57, 6.57, 6.21, 6.55, -1.9, -5.94, -4.54, -2.95, -2.23, -1.27, 0.0, 0.99, 2.21, 2.21, 3.2, 3.82, 4.24, 3.82, 3.82, 3.82, 6.96, 6.96, 6.97, 6.97, 6.97, 6.97, 6.71, 6.98, 6.98, 6.98, 6.7, 6.7, 6.98, 6.98, 6.69, 6.97, 6.97, 6.97, 6.97, 6.95, 6.95, 6.95, 6.92, 6.87, 6.87, 6.87, 6.79, 7.07, 6.7, 6.95, 6.8, 7.01, 6.79, 6.47, 6.16, 5.78, 5.78, 5.36, 4.92, 4.47, 4.44, 4.3, 4.11, 3.7, 4.11, 4.11, 3.35, 2.84, 2.51, 2.84, 2.84, 3.43, 3.72, 3.72, 3.72, 3.72, 3.72, 3.72, 3.72, 3.35, 3.35, 3.35, 3.35, 3.35, 3.35, 3.72, 3.6, 3.6, 4.6, 7.12, 7.53, 7.53, 7.2, 7.2, 6.82, 7.2, 7.37, 7.37, 7.37, 6.6, 6.18, 6.45, 4.11, -3.58, -5.6, -4.29, -2.84, -1.98, -1.13, 0.0, 0.99, 1.4, 2.21, 3.82, 4.34, 3.82, 3.82, 3.82, 6.96, 6.96, 6.97, 6.97, 6.97, 6.97, 6.71, 6.98, 6.98, 6.98, 6.7, 6.7, 6.98, 6.98, 6.98, 6.97, 6.97, 6.97, 7.27, 6.95, 6.95, 7.25, 6.92, 6.87, 6.87, 6.79, 6.79, 7.07, 6.95, 6.95, 6.8, 7.01, 6.79, 6.3, 6.47, 6.16, 5.78, 5.34, 4.92, 4.92, 4.47, 4.44, 4.3, 4.11, 4.11, 4.11, 3.88, 3.14, 2.53, 2.53, 3.14, 3.72, 3.72, 3.72, 3.72, 3.72, 3.72, 3.72, 3.72, 3.72, 3.72, 3.35, 3.35, 3.6, 3.6, 3.6, 3.7, 3.7, 4.34, 6.94, 7.12, 6.8, 6.6, 6.18, 6.6, 6.8, 7.12, 7.54, 7.37, 7.12, 5.84, 6.55, 6.55, -0.0, -5.4, -5.37, -2.68, -1.8, -0.98, 0.0, 0.0, 1.13, 1.98, 3.35, 3.82, 3.82, 3.82, 3.82, 6.96, 6.96, 7.24, 6.97, 6.97, 6.97, 6.97, 6.98, 6.98, 6.98, 6.7, 6.7, 6.98, 6.98, 6.98, 6.69, 6.97, 6.97, 7.27, 6.95, 6.95, 6.92, 6.92, 6.87, 6.87, 6.79, 7.07, 6.7, 6.95, 6.95, 6.8, 7.01, 6.6, 6.3, 6.47, 6.16, 5.7, 5.78, 5.36, 4.92, 4.92, 4.44, 4.34, 4.3, 4.3, 4.3, 4.11, 3.35, 3.14, 2.79, 3.14, 3.72, 3.72, 3.72, 3.72, 3.72, 3.88, 3.88, 3.88, 3.88, 3.88, 3.72, 3.72, 3.6, 3.6, 3.82, 3.87, 3.87, 4.34, 6.45, 6.21, 6.8, 6.6, 6.6, 6.21, 6.6, 6.8, 6.6, 7.12, 6.18, 6.18, 6.6, 6.82, 3.22, -4.47, -5.6, -3.79, -2.68, -1.8, -0.98, 0.0, 0.0, 1.13, 2.84, 3.35, 3.82, 3.82, 3.82, 6.96, 6.96, 7.24, 6.97, 6.97, 6.97, 6.97, 6.98, 6.98, 6.98, 6.98, 6.7, 6.98, 6.98, 6.98, 6.69, 6.97, 6.97, 6.95, 6.95, 6.95, 6.92, 6.92, 6.87, 7.15, 6.79, 7.07, 6.7, 6.95, 6.95, 6.8, 7.01, 6.6, 6.79, 6.47, 6.04, 6.16, 5.78, 5.34, 5.36, 4.92, 4.88, 4.44, 4.34, 4.34, 4.34, 4.11, 3.72, 3.14, 3.14, 3.14, 4.0, 3.88, 3.88, 3.88, 3.88, 3.88, 3.88, 4.27, 4.27, 4.27, 3.88, 3.88, 4.11, 3.6, 3.82, 3.87, 3.87, 3.98, 4.34, 5.09, 7.12, 7.12, 6.21, 6.21, 6.6, 6.8, 6.6, 6.21, 6.18, 6.6, 6.8, 7.2, 3.91, -3.82, -5.6, -4.65, -2.68, -2.0, -2.0, -0.98, 0.0, 1.13, 2.53, 2.53, 3.2, 3.2, 3.2, 7.24, 7.24, 7.24, 6.97, 7.33, 6.97, 6.97, 6.98, 6.98, 6.98, 6.98, 6.98, 6.98, 6.98, 6.98, 6.97, 6.97, 6.97, 6.95, 6.95, 6.92, 6.92, 6.92, 6.87, 6.79, 6.79, 7.07, 6.7, 6.95, 6.95, 6.8, 6.8, 6.6, 6.79, 6.3, 6.47, 6.16, 6.16, 5.78, 5.36, 5.36, 4.92, 4.44, 4.44, 4.44, 4.34, 4.3, 3.6, 3.35, 3.35, 3.6, 3.6, 4.11, 4.11, 4.11, 4.11, 3.88, 4.27, 4.27, 4.27, 4.27, 4.27, 3.88, 4.11, 3.87, 3.87, 3.87, 3.98, 3.98, 3.98, 4.88, 6.94, 6.57, 8.06, 6.57, 7.12, 6.99, 6.21, 6.21, 6.99, 6.99, 6.99, 7.2, 5.49, -1.13, -5.94, -4.54, -3.22, -2.95, -2.0, -2.0, -0.98, 0.0, 1.4, 2.21, 2.21, 2.21, 2.21, 7.24, 7.24, 7.24, 7.33, 7.33, 7.33, 7.26, 6.98, 6.98, 6.98, 6.7, 6.98, 6.98, 6.98, 6.98, 6.97, 6.97, 6.67, 6.95, 6.95, 6.92, 6.92, 6.87, 6.87, 6.79, 6.79, 7.07, 6.7, 6.95, 6.95, 6.8, 6.8, 6.6, 6.6, 6.79, 6.47, 6.47, 6.16, 5.78, 5.78, 5.36, 4.92, 4.92, 4.44, 4.44, 4.44, 4.3, 3.7, 3.6, 3.6, 3.7, 4.11, 4.11, 4.11, 4.11, 4.11, 3.88, 4.27, 4.27, 4.27, 4.27, 4.11, 4.11, 4.11, 4.3, 3.87, 3.98, 3.98, 3.98, 4.02, 4.47, 4.89, 5.67, 8.38, 6.94, 6.94, 6.94, 6.99, 7.12, 7.12, 7.12, 6.99, 6.6, 6.55, 3.49, -4.02, -5.6, -4.11, -3.79, -3.22, -2.4, -2.2, -0.87, 0.0, 0.99, 1.6, 1.6, 1.6, 7.24, 7.24, 7.24, 7.33, 7.33, 7.33, 7.26, 6.98, 6.98, 6.98, 6.7, 6.98, 6.98, 6.98, 6.98, 6.97, 6.97, 6.67, 6.95, 6.95, 6.92, 6.92, 6.87, 6.87, 6.79, 6.79, 7.07, 6.7, 6.95, 6.95, 6.8, 6.8, 6.6, 6.6, 6.79, 6.47, 6.47, 6.16, 5.78, 5.78, 5.36, 4.92, 4.92, 4.44, 4.44, 4.44, 4.3, 3.7, 3.6, 3.6, 3.7, 4.11, 4.11, 4.11, 4.11, 4.11, 3.88, 4.27, 4.27, 4.27, 4.27, 4.11, 4.11, 4.11, 4.3, 3.87, 3.98, 3.98, 3.98, 4.02, 4.47, 4.89, 5.67, 8.38, 6.94, 6.94, 6.57, 6.99, 7.12, 7.12, 7.12, 6.8, 6.6, 6.82, 6.18, 2.48, -4.02, -5.4, -4.98, -3.79, -3.22, -2.95, -2.0, 0.0, 0.0, 0.0, 0.0, 0.0]}, {"header": {"dx": 0.06612293990616946, "dy": 0.0552356325346848, "nx": 98, "ny": 59, "la1": 35.046912555036876, "la2": 31.78801023549047, "lo1": -121.43107172385933, "lo2": -114.95102361305473, "refTime": "2026041722", "parameterCategory": 1, "parameterNumber": 3}, "data": [-6.87, -5.69, -5.08, -4.75, -4.12, -3.47, -3.22, -3.22, -2.82, -2.82, -2.18, -1.84, -0.89, 0.0, 0.0, 0.0, 0.94, 1.0, 0.0, 0.0, 1.58, 1.58, 0.89, 0.94, 0.0, 0.0, -0.95, -2.76, -4.34, -4.34, -4.34, -4.47, -4.47, -4.47, -4.0, -4.98, -5.51, -6.45, -6.45, -6.16, -5.6, -4.65, -3.48, 0.0, 3.48, 2.84, 2.23, 2.48, 1.41, -0.0, -0.0, -0.0, -0.0, -0.0, -0.0, -2.21, -3.13, -2.68, -2.68, 0.0, -0.0, -0.0, -2.68, -3.13, -3.58, -4.47, -4.47, -4.77, -4.92, -5.26, -5.26, -4.82, -4.92, -5.36, -5.36, -5.81, -6.17, -5.59, -6.45, -6.88, -7.37, -7.2, -7.2, -6.45, -5.1, -4.71, -3.63, -2.83, -2.57, -1.75, -1.84, -0.94, 0.0, 1.3, 3.72, 2.68, -3.2, -4.8, -6.52, -5.98, -5.37, -4.45, -3.84, -3.22, -3.49, -3.08, -2.84, -2.61, -2.4, -2.51, -0.94, 0.0, 0.0, 0.0, 0.0, 0.0, 0.0, 0.94, 1.4, 1.58, 1.58, 1.4, 0.89, 0.0, -0.89, -2.8, -4.98, -4.92, -4.47, -4.92, -4.92, -4.92, -5.26, -5.73, -6.64, -6.71, -5.81, -4.82, -3.82, 0.0, -0.0, 2.84, 2.23, 2.23, 2.48, 1.41, 1.27, -0.0, -0.0, -0.0, -0.0, -0.0, -1.26, -2.68, -3.13, -2.68, -2.68, -0.0, -0.0, -0.0, -2.68, -3.13, -4.02, -4.47, -4.47, -4.34, -4.77, -4.77, -4.77, -4.77, -4.92, -4.92, -5.36, -5.81, -6.17, -5.59, -6.45, -6.88, -7.37, -7.2, -7.2, -6.45, -5.1, -4.71, -3.63, -2.83, -2.57, -1.75, -1.84, -0.94, 0.0, 1.3, 3.72, 2.68, -3.2, -4.8, -6.79, -5.65, -5.06, -4.74, -4.12, -3.49, -3.49, -3.08, -2.84, -2.4, -2.4, -1.73, -0.94, 0.0, 0.0, 0.0, 0.0, 0.0, 0.0, 0.0, 0.94, 1.4, 1.58, 1.49, 1.32, 0.89, 0.0, -3.0, -4.98, -5.26, -4.92, -4.92, -5.36, -6.71, -6.26, -8.05, -7.08, -4.98, -2.48, -0.0, 1.4, 2.23, 2.48, 2.48, 2.23, 2.23, 1.41, 1.27, -0.0, -0.0, -0.0, -0.0, -0.0, -2.21, -2.24, -2.68, -2.68, -2.68, -1.9, -2.21, -1.4, -2.21, -3.58, -4.02, -4.02, -4.34, -4.34, -4.34, -4.24, -3.72, -4.0, -4.34, -4.47, -4.47, -5.36, -5.81, -6.64, -6.64, -6.51, -6.94, -7.81, -7.53, -7.6, -7.2, -6.06, -5.3, -3.91, -3.63, -3.32, -2.57, -2.69, -1.75, 0.0, 1.03, 2.95, 3.2, -0.0, -4.4, -6.44, -5.93, -5.35, -4.74, -4.12, -4.12, -3.49, -2.82, -2.61, -2.4, -2.84, -3.08, -1.84, 0.0, 0.0, 0.0, 0.0, 0.0, 0.0, 0.0, 0.0, 0.0, 0.0, 0.83, 0.0, 0.0, 0.0, -1.84, -4.74, -5.94, -5.26, -5.26, -5.81, -7.15, -8.05, -7.89, -5.72, -1.63, -0.0, 1.08, 2.0, 2.48, 2.48, 1.27, 1.27, 1.27, 1.27, -0.0, -0.0, -0.0, -0.0, -1.4, -2.21, -2.8, -3.13, -3.13, -2.68, -1.9, -2.21, -2.21, -2.53, -3.6, -4.02, -4.47, -4.34, -4.34, -4.4, -4.0, -3.58, -4.0, -4.4, -4.77, -4.47, -4.02, -4.82, -5.51, -6.45, -7.08, -7.37, -7.37, -7.21, -7.63, -7.76, -7.2, -7.2, -6.45, -6.01, -5.36, -4.34, -4.34, -3.45, -1.95, -0.89, 0.0, 1.99, 2.48, 0.0, -3.72, -6.7, -6.15, -5.59, -5.01, -4.43, -4.12, -3.49, -3.22, -2.82, -2.82, -2.82, -3.47, -2.67, -1.0, 0.0, 0.0, 0.0, 0.0, 0.0, 0.0, 0.0, 1.58, 1.49, 1.49, 0.0, 0.0, 0.0, -1.49, -6.08, -6.16, -6.36, -5.94, -6.36, -5.51, -6.26, -4.8, -0.0, -0.0, -0.0, -0.0, -0.0, -0.0, -0.0, -0.0, -0.0, -0.0, -0.0, -0.0, -0.0, -1.4, -2.21, -2.8, -3.2, -3.58, -3.58, -3.13, -2.8, -2.21, -1.6, -1.6, -2.53, -3.82, -4.34, -4.77, -4.77, -4.4, -4.4, -4.29, -4.98, -4.98, -5.7, -5.26, -4.82, -5.36, -5.4, -5.2, -5.94, -6.64, -7.1, -6.98, -7.21, -7.63, -7.76, -7.76, -7.42, -7.2, -7.15, -6.73, -6.32, -5.53, -4.68, -2.99, -1.84, 0.0, 1.98, 2.4, 0.0, -3.35, -6.7, -6.15, -5.59, -5.01, -4.43, -4.12, -3.83, -3.22, -3.04, -2.8, -3.22, -4.12, -3.6, -1.95, -0.94, -0.85, -0.89, 0.0, 0.0, 0.94, 2.09, 2.64, 3.2, 1.73, 1.4, 0.0, 0.0, 0.0, -3.47, -6.8, -6.94, -7.12, -6.18, -2.99, 1.13, 2.8, 1.08, -0.0, -0.0, -1.08, -1.27, -2.4, -1.27, -1.27, -0.0, -0.0, -1.6, -1.6, -3.2, -3.2, -3.2, -3.2, -3.2, -3.2, -2.8, -2.21, -2.21, -2.21, -2.53, -2.84, -2.84, -4.24, -4.77, -4.82, -4.8, -4.29, -4.8, -4.98, -5.73, -6.17, -6.2, -6.17, -6.26, -6.71, -6.64, -6.45, -6.0, -6.45, -7.1, -7.54, -7.63, -7.76, -8.17, -8.17, -8.17, -8.21, -8.21, -7.82, -7.2, -5.84, -4.19, -1.14, 0.0, 1.98, 1.84, 0.96, 0.0, -2.53, -6.7, -6.41, -5.86, -5.01, -4.43, -4.43, -3.83, -3.47, -3.22, -3.45, -3.85, -4.12, -3.27, -1.75, -1.33, -1.67, 0.0, 0.94, 3.0, 4.43, 4.43, 4.19, 3.22, 3.22, 3.2, 3.0, 1.52, 1.52, 1.63, -1.14, -6.8, -6.57, -4.89, 0.0, 4.02, 4.4, 2.2, -0.0, -0.0, -0.0, -0.0, -0.0, -0.0, -0.0, -2.2, -1.27, -2.84, -3.82, -3.82, -4.4, -4.4, -3.82, -3.82, -3.2, -2.21, -1.4, -1.4, -1.6, -1.13, -2.48, -3.72, -4.77, -5.26, -4.98, -4.98, -4.98, -5.4, -5.73, -6.26, -6.71, -6.64, -6.71, -6.71, -7.15, -7.1, -7.1, -6.45, -6.45, -6.94, -8.0, -8.06, -8.17, -8.17, -8.17, -8.72, -8.14, -8.21, -7.2, -6.8, -4.98, 0.0, 2.68, 3.91, 3.0, 0.95, 0.0, 0.0, -2.53, -6.95, -6.41, -5.86, -5.29, -5.01, -4.43, -4.12, -3.84, -4.1, -4.1, -3.85, -3.84, -2.99, -1.0, 0.0, 0.0, 2.6, 5.6, 6.02, 6.45, 5.6, 4.6, 4.98, 5.6, 5.6, 4.74, 4.74, 4.29, 4.37, 1.58, 0.0, 0.0, 0.0, 4.92, 4.15, 3.79, 2.76, 1.99, 1.98, 2.4, 3.48, 3.16, 3.16, -0.0, -0.0, -3.48, -3.35, -3.72, -4.34, -4.8, -3.35, -3.35, -2.84, -2.84, -2.53, -1.6, -1.13, -1.27, -1.27, -2.23, -3.72, -4.77, -4.82, -4.4, -4.4, -4.98, -5.73, -6.26, -6.26, -5.81, -6.26, -6.71, -6.71, -7.15, -7.15, -6.71, -7.1, -6.94, -7.37, -7.85, -7.45, -7.47, -7.07, -7.07, -7.6, -7.67, -7.06, -6.45, -5.58, -1.6, 3.6, 5.2, 3.91, 1.84, 0.0, 0.0, 0.0, -2.84, -6.95, -6.41, -5.86, -5.49, -5.29, -4.43, -4.43, -4.75, -4.75, -4.47, -4.45, -4.43, -4.14, -0.95, 1.1, 4.65, 6.26, 7.15, 7.15, 7.15, 7.01, 7.15, 6.71, 6.64, 6.45, 6.4, 6.4, 6.08, 4.83, 3.4, 5.21, 6.71, 7.15, 6.51, 4.82, 4.34, 5.58, 5.06, 3.72, 4.43, 4.11, 4.4, 3.16, -0.0, -3.16, -3.2, -4.8, -4.8, -4.4, -3.72, -4.8, -3.72, -3.72, -3.16, -2.48, -2.48, -1.08, -1.08, -2.48, -3.72, -4.0, -4.77, -4.34, -4.34, -4.77, -5.36, -5.81, -5.81, -5.36, -5.36, -5.81, -5.36, -5.81, -5.36, -5.81, -7.15, -7.15, -7.54, -7.37, -7.55, -8.0, -7.47, -7.07, -6.39, -6.06, -6.39, -6.32, -5.36, -3.33, 0.88, 4.19, 3.63, 1.6, 0.0, 0.0, 0.0, 0.0, -1.8, -7.08, -6.56, -6.03, -5.49, -5.29, -5.01, -5.06, -5.08, -5.08, -4.47, -4.45, -5.01, -3.49, -1.73, 1.1, 5.4, 6.26, 6.26, 6.71, 6.71, 7.15, 7.15, 7.15, 7.45, 7.45, 7.01, 7.01, 7.06, 6.08, 5.06, 6.4, 8.05, 7.94, 7.47, 6.08, 5.21, 5.81, 5.81, 7.15, 5.94, 3.35, 1.9, 0.0, -2.68, -1.9, -2.21, -2.53, -3.72, -3.93, -4.4, -4.4, -4.4, -4.4, -3.93, -4.29, -3.22, -3.22, -3.22, -2.95, -3.93, -4.4, -4.34, -5.09, -4.47, -4.47, -4.92, -4.92, -4.47, -4.47, -4.92, -4.92, -4.47, -4.02, -4.92, -5.36, -6.26, -7.1, -7.54, -7.11, -7.56, -7.56, -7.89, -6.7, -6.39, -5.59, -5.59, -4.71, -3.7, -1.58, 0.79, 2.35, 1.52, 0.0, 0.0, 0.0, 1.05, 2.68, -1.6, -7.48, -6.95, -6.41, -5.86, -5.29, -5.35, -5.37, -5.37, -5.08, -5.06, -4.45, -5.01, -4.45, -3.47, -1.1, 2.48, 4.47, 1.34, 0.63, 0.6, 4.0, 4.77, 4.8, 5.4, 7.01, 6.51, 6.26, 6.07, 6.0, 5.06, 6.08, 6.6, 7.4, 6.32, 4.74, 4.14, 4.14, 6.64, 6.73, 6.18, 3.82, 0.0, -2.24, 0.0, 0.0, 0.0, 0.0, -3.82, -4.4, -4.98, -5.4, -4.98, -4.98, -5.6, -5.58, -4.74, -3.72, -2.99, -3.22, -4.29, -4.4, -4.24, -3.82, -4.47, -4.92, -4.92, -4.92, -4.92, -4.92, -4.47, -4.47, -3.47, -3.47, -4.47, -5.36, -5.81, -6.2, -7.08, -7.54, -8.05, -7.6, -8.01, -7.71, -6.39, -5.59, -4.71, -4.0, -3.06, -1.52, 0.0, 0.76, 0.0, 0.0, 0.89, 0.94, 1.84, 2.48, 0.0, -7.48, -6.95, -6.41, -5.86, -5.59, -5.93, -5.65, -5.98, -5.65, -5.06, -5.01, -5.01, -4.45, -4.45, -2.4, -0.51, 0.0, 0.0, 0.0, 0.0, 0.43, 0.54, 1.0, 4.43, 5.64, 5.81, 4.92, 1.7, 3.72, 3.47, 4.56, 5.69, 6.91, 5.37, 4.42, 3.6, 3.88, 5.14, 5.86, 5.72, 2.57, 0.0, 0.0, 4.4, 5.51, 4.4, 3.79, 0.0, -4.47, -4.8, -4.4, -4.98, -4.98, -4.98, -4.29, -3.22, -2.8, -2.8, -2.76, -2.48, -3.72, -3.72, -4.47, -4.92, -5.36, -5.36, -5.26, -5.26, -5.36, -5.36, -3.9, -3.9, -3.9, -4.92, -5.81, -6.26, -6.2, -6.2, -6.21, -6.65, -7.6, -8.44, -8.33, -7.82, -6.39, -5.49, -4.6, -3.7, -2.23, -0.73, 0.0, 0.0, 0.0, 0.94, 0.84, 0.94, 1.84, 1.41, -8.0, -7.08, -6.56, -6.41, -6.15, -5.65, -5.98, -5.98, -5.65, -5.06, -5.35, -5.01, -5.01, -4.74, -3.84, -2.18, -1.11, 0.0, 0.0, 0.0, 0.0, 0.0, 0.0, 0.54, 0.6, 0.89, 0.45, 0.0, 0.0, 0.6, 3.22, 5.37, 5.69, 4.42, 4.26, 4.34, 4.5, 4.92, 4.13, 3.19, 2.51, 0.89, 2.48, 5.26, 6.94, 6.94, 6.4, 5.58, 4.11, 3.48, 0.0, 0.0, 0.0, 0.0, 4.02, 4.92, 3.16, -0.0, -1.05, -1.41, -2.53, -4.24, -4.92, -5.36, -5.7, -5.36, -5.36, -5.81, -6.26, -6.26, -5.73, -5.7, -5.81, -5.81, -6.26, -6.26, -6.17, -5.73, -5.75, -5.75, -6.65, -8.0, -7.89, -8.48, -7.82, -7.06, -5.89, -4.71, -3.6, -2.31, -1.65, -0.79, 0.0, 0.0, 0.0, 0.0, 0.84, 0.95, -8.22, -7.71, -6.95, -6.41, -6.15, -6.23, -6.23, -5.65, -5.65, -5.59, -5.35, -5.01, -4.43, -4.43, -3.83, -2.84, -1.76, -1.13, -0.53, -0.54, -0.54, 0.0, 0.0, 0.0, 0.0, -0.45, -0.45, -0.63, -0.45, 0.0, 1.26, 4.11, 5.03, 4.42, 4.26, 5.1, 4.96, 5.06, 3.51, 1.76, 1.76, 3.55, 6.0, 7.45, 7.45, 7.45, 6.45, 6.4, 6.4, 6.4, 5.58, 5.21, 5.21, 5.21, 6.0, 4.81, 5.58, 3.48, -0.0, -0.0, -2.21, -4.47, -4.92, -4.8, -2.84, -2.48, -2.23, -3.35, -5.51, -5.81, -6.26, -6.26, -6.71, -6.71, -6.71, -6.26, -6.26, -5.81, -5.81, -6.26, -6.64, -6.94, -7.42, -7.21, -7.89, -7.82, -7.15, -6.45, -4.56, -4.03, -3.2, -2.51, -1.63, 0.0, 0.0, 0.0, 0.0, 0.0, -8.3, -7.81, -7.08, -6.95, -6.51, -6.23, -6.23, -5.88, -5.93, -5.59, -5.01, -4.94, -4.37, -3.79, -3.48, -2.86, -1.8, -0.99, -0.61, -0.53, -0.54, 0.0, 0.0, 0.0, -0.54, -1.2, -0.89, -1.2, -0.63, 0.0, 0.89, 2.15, 4.56, 5.31, 5.31, 6.64, 6.3, 5.21, 3.61, 2.83, 5.06, 7.63, 7.45, 7.45, 7.94, 7.94, 7.45, 7.01, 6.0, 6.0, 5.58, 5.58, 5.58, 5.58, 4.74, 4.56, 4.29, 3.9, 2.23, -0.0, 1.9, 4.02, 3.16, 3.79, 4.43, 3.72, 3.2, 1.73, 0.0, -4.43, -5.73, -5.81, -5.36, -6.26, -6.2, -6.2, -6.26, -5.81, -5.81, -6.26, -6.2, -6.45, -6.51, -6.28, -6.4, -7.2, -7.2, -7.2, -6.07, -5.37, -4.58, -3.33, -2.47, -1.52, -0.83, 0.0, 0.0, 0.0, -8.72, -8.22, -7.48, -6.7, -6.7, -6.23, -6.23, -6.15, -5.59, -5.01, -4.94, -4.37, -4.07, -3.48, -2.86, -2.51, -1.84, -1.16, -1.16, -1.16, -0.65, -0.54, 0.0, -0.61, -0.99, -1.16, -0.99, -0.63, 0.0, 0.89, 2.24, 3.07, 2.86, 5.37, 6.63, 6.7, 6.73, 5.1, 5.31, 6.08, 7.1, 8.0, 8.38, 8.38, 7.94, 7.94, 7.47, 7.06, 6.08, 6.08, 5.72, 5.06, 4.74, 4.74, 4.29, 3.2, 3.4, 4.29, 5.58, 6.07, 4.98, 6.0, 6.4, 6.4, 6.4, 6.08, 4.74, 4.37, 2.99, 0.0, -3.48, -2.24, 1.6, -1.8, -5.4, -5.94, -6.17, -5.73, -5.81, -5.81, -6.17, -5.94, -6.45, -6.57, -6.21, -5.49, -6.18, -6.6, -6.57, -5.95, -5.06, -3.22, -2.6, -1.72, -1.52, -1.63, -0.79, -0.79, -8.72, -8.22, -7.48, -7.23, -7.07, -6.44, -6.51, -5.93, -5.86, -4.94, -4.37, -3.79, -3.73, -2.86, -2.51, -2.23, -1.84, -1.61, -1.16, -1.16, -1.2, -0.54, 0.0, -0.59, -1.76, -2.2, -1.11, 0.54, 1.7, 2.68, 3.87, 3.88, 3.64, 6.52, 6.4, 6.94, 7.53, 7.47, 7.47, 7.94, 8.38, 8.0, 8.41, 7.37, 8.06, 8.06, 7.6, 6.9, 5.69, 6.01, 5.69, 5.69, 5.69, 5.69, 6.01, 5.31, 4.37, 5.31, 6.32, 6.64, 6.64, 6.63, 6.0, 5.21, 5.21, 4.29, 5.06, 3.2, 1.73, 0.0, -2.2, 2.68, 5.73, 4.77, -3.16, -6.0, -5.94, -5.51, -5.73, -6.26, -6.64, -6.88, -6.88, -6.28, -6.57, -6.21, -5.06, -5.95, -5.58, -5.58, -4.54, -4.54, -3.35, -3.22, -2.8, -2.29, -1.52, -1.52, -8.79, -8.3, -8.0, -7.23, -7.07, -6.7, -6.15, -5.86, -5.49, -4.71, -4.65, -4.07, -3.48, -3.16, -2.51, -2.23, -2.53, -2.21, -1.61, -1.84, -1.61, 0.0, 1.0, 0.0, -1.58, -1.8, 0.0, 1.9, 2.49, 4.44, 5.09, 4.4, 4.4, 4.4, 4.9, 6.94, 7.1, 7.45, 7.45, 7.45, 7.94, 8.38, 7.94, 7.63, 8.06, 7.44, 6.98, 5.31, 5.31, 6.01, 6.28, 6.9, 7.28, 6.63, 6.63, 6.32, 5.59, 5.59, 6.64, 6.3, 5.1, 5.21, 3.2, 3.79, 3.79, 3.48, 3.22, 1.63, 1.73, 0.0, 1.41, 3.58, 4.98, 5.7, -0.0, -5.37, -6.0, -6.45, -6.64, -6.71, -7.1, -7.37, -7.85, -7.21, -7.12, -6.18, -5.69, -5.49, -5.58, -5.58, -5.37, -5.6, -4.8, -4.19, -3.63, -2.99, -3.22, -3.22, -9.21, -8.51, -8.0, -7.23, -7.07, -6.7, -6.15, -5.86, -5.29, -4.65, -4.07, -3.73, -3.16, -3.16, -2.58, -3.22, -1.86, -1.58, -1.88, -2.23, -1.61, 0.6, 2.68, 3.93, 2.21, 4.02, 1.7, 5.94, 6.57, 5.31, 5.31, 4.9, 4.8, 4.6, 4.6, 4.77, 4.44, 3.87, 5.51, 6.4, 5.94, 6.36, 7.06, 7.47, 7.6, 6.32, 5.59, 5.31, 5.69, 6.9, 6.9, 6.9, 6.9, 7.28, 6.98, 6.32, 5.59, 6.64, 6.3, 4.88, 3.61, 2.7, 1.49, 1.41, 2.84, 2.48, 2.4, 1.98, 0.95, 2.69, 4.37, 3.55, 3.47, 3.91, 2.53, -4.47, -6.45, -6.88, -7.1, -7.15, -7.37, -7.85, -8.29, -7.89, -7.63, -7.2, -6.18, -5.43, -5.15, -4.81, -4.89, -5.94, -5.73, -4.8, -4.11, -4.11, -4.11, -4.11, -9.21, -8.51, -8.0, -7.87, -7.07, -6.7, -6.41, -5.86, -5.21, -4.65, -4.07, -4.0, -3.43, -3.16, -2.86, -1.16, -1.24, -1.24, -1.19, -1.08, 0.0, 2.24, 3.13, 5.36, 5.36, 5.36, 5.29, 4.34, 4.8, 4.55, 4.9, 4.9, 5.09, 5.09, 4.8, 4.77, 4.3, 3.82, 3.2, 3.35, 3.72, 3.64, 4.0, 4.55, 5.01, 5.31, 5.31, 5.03, 6.08, 7.47, 7.63, 7.63, 6.9, 7.28, 6.18, 6.45, 6.3, 5.59, 4.96, 3.87, 1.22, 0.0, 0.0, 0.0, 2.53, 2.48, 2.2, 1.84, 1.84, 2.67, 2.83, 2.83, 1.73, 0.89, 0.0, -3.82, -5.81, -6.26, -6.71, -7.08, -7.08, -7.54, -8.0, -8.0, -7.85, -6.79, -6.4, -5.46, -5.15, -4.43, -3.91, -4.98, -5.26, -5.7, -4.22, -4.11, -4.29, -4.29, -9.01, -8.51, -8.4, -8.0, -7.23, -6.95, -6.41, -5.75, -5.37, -4.93, -4.0, -4.0, -3.43, -3.43, -2.86, -1.8, -1.16, -0.61, 0.0, 1.08, 3.39, 2.24, 2.68, 2.68, 2.68, 2.63, 2.91, 3.2, 3.35, 3.88, 4.6, 4.6, 5.09, 5.24, 5.24, 4.77, 4.34, 4.3, 3.6, 3.6, 3.35, 3.72, 3.88, 4.8, 5.08, 6.98, 5.69, 6.08, 7.45, 7.5, 7.94, 7.63, 7.47, 6.9, 6.63, 6.11, 6.32, 5.94, 4.88, 2.58, 0.0, 0.0, 0.0, 0.0, 2.84, 2.48, 2.2, 2.16, 1.98, 1.84, 1.73, 1.65, 0.0, -3.0, -2.2, -3.35, -3.9, -4.24, -4.34, -5.26, -5.73, -6.71, -7.15, -7.15, -7.54, -7.37, -6.57, -6.0, -5.46, -4.74, -3.72, -3.49, -4.77, -4.47, -4.15, -3.48, -3.48, -3.48, -9.51, -9.01, -8.51, -8.0, -7.48, -6.95, -6.03, -5.89, -5.6, -5.08, -4.55, -4.0, -4.0, -3.43, -2.86, -2.23, -1.8, -1.13, -0.59, 0.0, 1.0, 1.49, 1.2, 1.79, 1.79, 1.7, 2.6, 2.91, 3.39, 3.87, 4.3, 4.34, 4.77, 4.77, 4.8, 4.77, 4.77, 4.77, 4.11, 4.11, 4.11, 4.11, 4.6, 5.09, 5.57, 5.37, 5.69, 7.01, 7.6, 7.5, 7.94, 7.63, 7.47, 6.9, 6.9, 6.63, 6.45, 6.18, 4.88, 2.58, 0.0, -1.75, -1.84, 0.0, 2.84, 3.48, 2.95, 1.99, 2.16, 1.63, 1.49, 1.32, -2.16, -5.7, -3.58, -2.97, -2.21, -1.13, 0.0, 0.0, -1.27, -4.47, -6.71, -7.6, -7.54, -7.54, -7.37, -7.12, -6.4, -5.46, -4.01, -2.6, -3.16, -3.9, -3.6, -3.48, -3.49, -3.49, -9.51, -9.51, -9.01, -8.0, -7.48, -6.95, -6.28, -5.89, -5.6, -5.08, -4.55, -4.17, -4.0, -4.0, -3.43, -2.86, -2.23, -1.8, -1.6, -0.61, 0.0, 0.6, 0.8, 1.34, 1.34, 1.79, 2.24, 2.6, 3.07, 3.53, 3.98, 4.43, 4.44, 4.34, 4.77, 4.77, 4.77, 4.77, 4.77, 4.6, 4.6, 4.6, 4.6, 4.77, 5.24, 5.57, 6.64, 7.15, 7.6, 8.05, 7.94, 7.63, 7.47, 6.9, 6.9, 6.9, 6.55, 6.32, 5.46, 2.54, 0.0, -3.0, -2.23, 2.21, 4.34, 4.8, 4.29, 3.22, 2.99, 1.99, 1.52, 1.55, -4.11, -4.74, -5.36, -3.13, -2.21, -1.13, 0.0, 0.96, 0.81, 0.0, -5.36, -7.15, -7.6, -7.54, -7.37, -7.37, -6.57, -6.45, -5.21, -3.22, -2.53, -2.98, -3.6, -3.16, -3.35, -3.35, -9.51, -9.51, -9.01, -8.51, -7.48, -6.95, -6.67, -5.89, -5.6, -5.08, -4.69, -4.55, -4.17, -4.0, -4.0, -3.43, -2.84, -2.51, -2.23, -1.88, -0.57, 0.0, 0.63, 1.34, 1.34, 1.79, 1.79, 2.24, 2.68, 3.09, 3.53, 3.98, 3.98, 4.44, 4.44, 4.34, 4.77, 4.77, 4.77, 4.77, 4.77, 4.6, 4.11, 4.3, 4.44, 4.47, 7.15, 7.6, 8.05, 8.05, 8.38, 7.63, 7.47, 7.47, 7.47, 6.52, 5.49, 5.69, 5.59, 5.31, 1.84, 1.08, 2.53, 4.47, 5.26, 5.51, 5.37, 5.06, 3.22, 0.96, 0.0, 0.0, -2.8, -4.43, -5.94, -5.81, -5.51, -3.79, -2.4, 0.0, 0.81, 0.88, -1.13, -5.36, -7.15, -7.1, -7.1, -6.45, -5.94, -6.17, -5.94, -4.19, -2.53, -2.41, -2.84, -3.58, -3.35, -3.35, -9.51, -9.51, -9.01, -8.51, -8.0, -7.48, -6.8, -6.51, -6.0, -5.6, -5.08, -4.9, -4.8, -4.17, -4.0, -3.43, -3.43, -2.84, -2.23, -1.88, -0.6, 0.0, 0.45, 0.89, 0.89, 1.34, 1.79, 2.24, 2.68, 3.13, 3.58, 3.58, 4.02, 3.98, 4.43, 4.44, 4.34, 4.77, 4.77, 4.77, 4.77, 4.6, 4.11, 3.6, 3.58, 3.98, 3.98, 4.47, 4.92, 4.89, 5.24, 7.63, 7.47, 7.47, 6.9, 6.52, 6.08, 4.74, 6.44, 6.44, 5.69, 4.74, 5.58, 5.94, 6.17, 6.45, 5.58, 4.74, 3.72, 0.0, 0.0, 0.0, -4.11, -5.58, -6.17, -5.81, -4.92, -4.0, -4.8, -2.53, 0.0, 0.96, 0.88, -2.98, -6.26, -6.26, -6.2, -6.17, -5.73, -5.29, -6.17, -5.59, -4.6, -4.29, -3.16, -3.48, -3.35, -3.35, -9.51, -9.51, -9.42, -8.91, -8.0, -7.6, -7.08, -6.28, -6.0, -5.6, -5.08, -5.31, -4.8, -4.8, -4.4, -4.0, -3.43, -3.09, -2.84, -1.61, -0.6, 0.0, 0.0, 0.45, 0.89, 1.34, 1.79, 2.24, 2.24, 2.68, 3.13, 3.58, 3.58, 4.02, 3.98, 4.43, 4.44, 4.44, 4.44, 4.88, 4.77, 4.6, 4.27, 3.07, 2.63, 3.09, 3.98, 4.44, 4.92, 4.88, 4.77, 4.6, 7.06, 7.47, 6.9, 6.28, 6.08, 5.72, 6.52, 6.44, 6.01, 5.86, 5.37, 5.58, 6.45, 7.12, 6.6, 5.84, 3.0, 0.89, 0.0, 0.0, -3.2, -5.51, -6.64, -6.71, -5.81, -4.85, -3.82, -3.2, 0.0, 2.98, 3.58, 0.0, -4.38, -6.26, -6.26, -5.81, -5.7, -5.29, -5.94, -6.21, -5.59, -4.8, -4.6, -3.79, -3.79, -3.79, -9.92, -9.92, -9.42, -8.91, -8.51, -8.0, -7.08, -6.8, -6.1, -5.6, -5.6, -5.31, -4.9, -4.8, -4.8, -4.4, -3.88, -3.43, -3.14, -2.5, -1.2, 0.0, 0.0, 0.0, 0.63, 0.95, 1.2, 1.7, 2.17, 2.6, 3.13, 3.07, 3.13, 3.58, 3.58, 4.02, 4.02, 4.02, 4.02, 3.98, 3.98, 4.34, 4.4, 2.79, 2.12, 2.63, 4.11, 4.77, 4.92, 4.88, 4.77, 4.6, 4.27, 4.27, 5.95, 5.84, 5.69, 6.4, 6.0, 5.49, 4.37, 4.26, 4.0, 6.18, 8.0, 7.2, 7.2, 4.42, 2.82, 0.95, 0.0, 0.0, -1.14, -3.82, -4.92, -5.81, -6.71, -5.81, -4.47, -3.13, 2.84, 6.02, 5.81, 3.93, 0.0, -2.8, -4.47, -5.36, -5.81, -5.73, -5.09, -5.51, -6.64, -6.64, -5.51, -4.6, -4.19, -4.19, -9.92, -9.92, -9.42, -9.01, -8.51, -8.0, -7.48, -6.8, -6.28, -6.0, -5.6, -5.31, -5.31, -4.9, -4.8, -4.4, -4.27, -3.88, -3.35, -2.5, -1.2, -0.45, 0.0, -0.0, -0.0, 0.6, 0.95, 0.99, 1.86, 2.0, 2.6, 2.63, 3.07, 3.09, 3.58, 3.58, 3.58, 3.58, 3.58, 3.58, 3.53, 3.98, 4.6, 3.14, 1.26, 0.6, 2.79, 5.09, 4.92, 4.88, 4.77, 4.11, 3.88, 3.72, 3.88, 5.58, 6.08, 6.52, 6.21, 5.49, 4.42, 3.6, 4.26, 6.45, 7.82, 8.18, 5.24, 3.77, 2.67, 0.94, 0.0, 0.0, -0.94, 0.0, 4.02, 2.68, -3.6, -5.94, -5.4, -1.27, 2.99, 4.4, 4.44, 5.59, 4.6, 3.58, 2.23, -1.8, -4.82, -5.73, -5.51, -5.4, -6.2, -5.81, -5.75, -5.09, -4.6, -4.6, -9.92, -9.92, -9.42, -9.01, -8.51, -8.0, -7.48, -7.2, -6.8, -6.28, -5.6, -5.6, -5.31, -4.9, -4.9, -4.8, -4.4, -4.27, -3.6, -2.91, -1.7, -0.89, -0.89, -0.63, -0.0, -0.0, -0.0, 0.54, 1.24, 1.9, 2.4, 2.4, 3.07, 3.07, 3.09, 3.13, 3.13, 3.13, 3.13, 3.13, 3.53, 3.54, 4.44, 5.94, 4.98, 1.34, 2.5, 5.09, 5.36, 4.88, 4.3, 4.11, 3.72, 3.35, 3.35, 3.72, 5.72, 6.52, 5.49, 5.37, 4.42, 3.4, 5.24, 7.15, 7.81, 6.01, 4.68, 3.77, 1.73, 0.0, 0.0, -0.89, 0.0, 3.22, 7.1, 6.71, 4.77, -1.6, -4.98, -1.99, 1.99, 3.49, 3.87, 3.58, 6.02, 5.2, 4.84, 2.76, 0.0, -2.84, -4.4, -4.4, -4.38, -5.81, -5.81, -5.09, -4.8, -4.8, -9.71, -9.71, -9.42, -9.01, -8.51, -8.0, -7.48, -7.31, -6.8, -6.28, -5.89, -5.6, -5.4, -5.31, -4.9, -4.8, -4.8, -4.4, -4.11, -2.91, -1.79, -1.34, -1.79, -1.6, -1.26, -0.57, -0.0, -0.0, 0.53, 1.61, 2.4, 2.4, 2.4, 3.07, 3.07, 3.07, 3.13, 2.68, 2.68, 2.68, 3.07, 3.58, 4.02, 4.44, 4.6, 4.57, 4.92, 5.33, 4.92, 4.3, 3.7, 3.6, 3.6, 3.6, 3.35, 3.35, 3.43, 3.48, 5.49, 5.49, 4.58, 4.42, 6.01, 6.73, 5.53, 4.68, 4.42, 4.14, 1.98, 0.0, -0.89, -0.89, 0.0, 3.97, 5.94, 6.26, 7.15, 4.92, -0.0, -1.05, -0.0, 1.9, 2.97, 3.58, 3.53, 5.2, 4.46, 3.79, 3.22, 1.7, 0.0, -1.27, -2.98, -5.81, -5.36, -5.29, -5.09, -5.09, -9.71, -9.71, -9.2, -8.8, -8.51, -8.0, -7.48, -7.08, -6.8, -6.67, -6.28, -5.75, -5.6, -5.4, -5.31, -4.9, -4.8, -4.8, -4.6, -3.39, -2.24, -2.24, -2.24, -1.7, -1.2, -0.0, -0.0, -0.0, -0.0, 1.16, 1.9, 2.4, 2.4, 2.4, 2.63, 2.63, 2.63, 2.68, 2.68, 2.68, 2.63, 3.13, 3.58, 4.02, 4.47, 5.81, 5.81, 4.92, 4.43, 3.87, 3.6, 3.7, 4.11, 3.6, 3.72, 3.72, 3.43, 3.43, 3.48, 5.06, 4.58, 5.24, 5.36, 4.5, 3.6, 2.67, 2.64, 3.0, 3.0, 1.63, 0.0, 0.96, 1.7, 2.8, 3.48, 4.77, 5.73, 6.26, 4.4, -0.0, -0.0, -0.0, 1.26, 2.63, 2.68, 2.49, 2.5, 3.35, 1.7, 1.6, 0.88, 0.0, 0.0, -2.8, -4.92, -4.92, -5.09, -5.09, -9.71, -9.71, -9.2, -8.8, -8.28, -8.4, -8.0, -7.48, -6.95, -6.8, -6.28, -5.89, -5.75, -5.6, -5.4, -5.31, -4.9, -4.9, -4.6, -3.87, -3.07, -2.68, -2.24, -1.79, -0.89, 0.0, 0.63, 0.89, 1.4, 0.61, 1.61, 1.86, 2.4, 2.4, 2.4, 2.6, 2.63, 2.68, 2.68, 2.68, 2.63, 2.63, 3.13, 3.53, 3.53, 3.58, 4.02, 3.98, 3.87, 3.87, 3.7, 4.11, 4.11, 3.88, 3.88, 3.88, 4.0, 3.78, 3.78, 3.48, 4.58, 4.68, 4.5, 3.91, 2.83, 1.84, 0.95, 0.0, 0.0, 1.4, 3.0, 3.72, 2.49, 1.23, 2.53, 3.16, 4.29, 4.98, 4.98, 1.7, -0.0, -0.88, -0.0, 0.95, 1.79, 2.17, 1.61, 1.16, 0.0, 0.0, 0.0, 0.0, 0.0, -1.2, -4.02, -4.47, -4.57, -4.57, -10.11, -10.11, -9.6, -9.2, -8.68, -8.15, -8.0, -7.48, -6.95, -6.56, -6.41, -6.28, -5.89, -6.0, -5.6, -5.4, -5.31, -5.31, -4.9, -4.19, -3.39, -3.07, -2.63, -1.79, -0.45, 0.45, 1.34, 1.79, 2.12, 2.23, 1.2, 1.58, 2.23, 2.4, 2.4, 2.6, 2.6, 2.68, 2.68, 2.68, 2.63, 2.49, 2.63, 2.68, 3.07, 3.09, 3.58, 3.53, 3.82, 3.87, 4.11, 4.11, 4.11, 3.88, 4.27, 4.27, 4.0, 4.0, 3.73, 3.48, 3.49, 4.42, 3.8, 3.77, 2.67, 1.84, 0.89, 0.95, 0.0, 1.32, 3.6, 3.6, 2.67, 0.89, 1.9, 1.05, 1.99, 2.95, 2.76, 1.7, -0.0, -1.66, -2.84, -1.4, -0.0, 1.2, 1.0, 0.51, 0.0, -1.05, -1.41, 0.0, 0.0, 0.0, -1.4, -4.92, -4.38, -4.38, -9.88, -9.88, -9.48, -9.2, -8.68, -8.28, -7.76, -7.48, -7.08, -6.95, -6.56, -6.41, -6.28, -5.89, -5.6, -5.6, -5.6, -5.6, -5.31, -4.6, -4.3, -3.39, -3.07, -1.7, -0.45, 0.0, 0.63, 1.6, 1.86, 1.24, 1.24, 1.24, 1.58, 2.4, 2.4, 2.4, 2.63, 2.63, 2.68, 2.68, 3.07, 2.91, 2.4, 2.24, 3.07, 3.53, 3.58, 3.58, 3.87, 3.87, 4.11, 4.11, 4.11, 3.88, 4.27, 4.27, 4.0, 4.0, 4.07, 3.79, 5.03, 5.03, 5.03, 4.14, 3.55, 2.82, 2.82, 1.96, 1.49, 2.54, 3.6, 4.0, 2.69, 1.73, 2.84, -0.0, -0.0, -0.0, 0.88, 0.81, -0.0, -1.8, -3.16, -2.84, -1.2, 0.0, 0.0, -0.51, -1.72, -1.99, -2.48, -2.53, -1.4, 0.0, -0.99, -3.39, -4.38, -4.38, -9.88, -9.88, -9.48, -8.96, -8.68, -8.68, -8.15, -7.61, -7.23, -6.95, -6.95, -6.41, -6.41, -6.28, -6.28, -6.1, -6.0, -5.6, -5.6, -5.31, -4.6, -3.87, -3.39, -2.17, -1.34, -0.45, -0.0, -0.0, 0.57, 0.57, 0.99, 1.24, 1.58, 1.9, 2.4, 2.4, 2.63, 2.63, 2.68, 3.13, 3.07, 3.32, 2.5, 1.7, 2.4, 3.82, 3.98, 4.02, 3.98, 4.3, 4.11, 4.11, 4.11, 3.88, 3.88, 4.27, 4.0, 4.0, 3.48, 3.49, 3.49, 5.31, 5.31, 4.14, 4.14, 2.99, 2.82, 2.67, 2.67, 2.67, 3.4, 2.83, 2.83, 1.84, 1.98, -0.0, -0.95, -0.89, -0.0, -0.0, -0.0, -1.98, -2.84, -3.58, -2.98, -0.89, -1.24, -2.6, -2.6, -2.99, -2.95, -3.72, -3.39, -2.21, -0.99, -2.21, -3.9, -3.9, -9.88, -9.88, -9.48, -9.35, -8.96, -8.43, -8.15, -7.61, -7.23, -7.07, -6.7, -6.95, -6.41, -6.41, -6.41, -6.28, -5.89, -6.0, -5.6, -5.47, -4.9, -4.19, -3.82, -2.63, -1.79, -1.34, -0.63, -0.0, -0.0, -0.0, 0.57, 0.99, 1.58, 1.9, 2.4, 2.4, 2.49, 2.63, 3.13, 3.13, 3.13, 3.39, 3.35, 1.86, 2.17, 3.2, 3.98, 4.02, 3.98, 4.3, 4.11, 4.11, 4.11, 3.88, 3.88, 3.88, 3.43, 3.78, 3.48, 3.2, 3.49, 3.49, 3.8, 2.67, 2.67, 2.69, 2.67, 1.95, 1.75, 1.84, 2.69, 2.67, 2.97, 1.67, 0.89, 0.0, -0.0, -0.0, -0.0, -0.0, -0.98, -1.98, -2.84, -3.58, -4.0, -4.02, -3.93, -3.63, -2.8, -2.6, -3.22, -4.0, -4.47, -4.02, -2.8, -2.21, -2.98, -2.98, -9.88, -9.88, -9.48, -9.35, -8.96, -8.43, -7.9, -7.9, -7.61, -7.23, -7.07, -6.7, -6.7, -6.51, -6.41, -6.41, -6.28, -6.28, -5.75, -5.6, -5.08, -4.8, -4.11, -3.39, -2.6, -1.79, -1.34, -0.95, -0.0, -0.0, 0.6, 0.8, 1.24, 1.58, 2.15, 2.4, 2.49, 3.07, 3.13, 3.13, 3.58, 3.98, 4.11, 4.0, 2.68, 3.39, 3.98, 4.02, 4.43, 4.3, 4.11, 4.11, 4.11, 3.88, 3.72, 3.72, 3.43, 3.43, 3.48, 3.48, 3.2, 3.49, 3.8, 2.99, 2.67, 2.69, 1.73, 0.94, 0.84, 0.94, 1.84, 2.67, 2.83, 1.33, 0.0, 0.0, 1.6, 1.19, -0.0, -0.96, -1.8, -2.84, -2.84, -3.58, -4.38, -4.92, -4.6, -3.63, -2.8, -1.98, -2.99, -3.93, -4.47, -4.47, -4.02, -3.39, -2.98, -2.98, -9.63, -9.63, -9.63, -9.35, -8.96, -8.82, -8.43, -7.9, -7.35, -7.35, -6.79, -6.79, -6.79, -6.7, -6.51, -6.51, -6.41, -6.28, -6.28, -5.75, -5.37, -5.08, -4.4, -3.7, -3.07, -2.24, -1.79, -1.2, -0.63, -0.0, -0.0, 0.6, 1.26, 1.86, 1.86, 2.4, 2.4, 3.07, 3.07, 3.13, 3.58, 4.02, 4.44, 5.51, 3.53, 3.58, 3.98, 4.47, 4.43, 3.87, 4.11, 4.11, 4.11, 3.72, 3.72, 3.72, 3.43, 3.43, 3.48, 3.48, 3.2, 3.49, 4.37, 2.82, 2.67, 1.4, 1.32, 1.84, 1.65, 1.84, 2.51, 2.99, 1.49, 0.84, 0.0, 0.0, 1.19, 1.99, -0.0, -0.88, -2.68, -2.84, -2.84, -4.0, -4.38, -4.92, -4.8, -4.11, -3.0, -1.84, -1.98, -3.22, -4.47, -4.34, -4.47, -3.58, -2.98, -2.98, -9.63, -9.63, -9.63, -9.1, -9.35, -8.82, -8.43, -8.27, -7.9, -7.35, -7.35, -7.15, -6.79, -6.79, -6.44, -6.7, -6.7, -6.95, -6.41, -6.03, -5.75, -5.37, -5.08, -4.4, -3.82, -3.07, -2.24, -1.79, -1.34, -0.0, -0.0, 0.6, 1.26, 1.26, 1.86, 2.4, 2.4, 3.07, 3.07, 3.13, 3.13, 3.58, 4.02, 4.34, 5.94, 3.98, 4.47, 4.47, 3.87, 3.7, 3.7, 3.7, 3.6, 3.72, 3.72, 3.72, 3.43, 3.43, 3.48, 3.48, 3.48, 3.49, 2.84, 3.8, 2.54, 2.54, 2.67, 2.67, 2.83, 3.4, 2.82, 1.84, 0.0, 0.0, 0.0, -0.0, -0.0, -0.0, -0.0, -0.88, -2.41, -2.68, -2.84, -3.35, -3.9, -4.47, -5.09, -4.89, -3.91, -2.8, -1.98, -2.76, -3.82, -3.82, -4.24, -4.47, -3.9, -2.98, -10.02, -10.02, -9.63, -9.1, -9.1, -8.55, -8.82, -8.27, -7.9, -7.64, -7.44, -7.09, -7.15, -6.79, -6.79, -6.79, -6.7, -6.7, -6.56, -6.41, -6.03, -5.86, -5.21, -5.08, -4.6, -3.82, -3.07, -2.24, -1.34, -0.89, -0.0, -0.0, 0.95, 1.6, 1.7, 2.17, 2.6, 2.63, 3.07, 3.13, 3.13, 3.13, 3.58, 3.53, 4.43, 6.17, 4.44, 4.43, 3.87, 3.6, 3.6, 3.6, 3.6, 3.35, 3.35, 3.72, 3.43, 3.16, 3.16, 3.48, 3.48, 3.48, 5.03, 4.14, 4.37, 5.31, 3.4, 3.8, 4.42, 4.42, 2.82, 0.95, 0.0, 0.0, 0.0, 0.0, -0.0, -0.0, -0.96, -1.19, -2.0, -2.68, -2.68, -3.35, -4.02, -4.38, -5.51, -5.21, -4.89, -3.63, -2.6, -2.99, -3.35, -3.82, -3.82, -4.02, -4.47, -4.47, -10.02, -10.02, -9.63, -9.48, -9.1, -8.55, -8.55, -8.43, -8.0, -8.0, -7.44, -7.44, -6.87, -6.87, -6.87, -6.79, -6.79, -6.79, -7.07, -6.7, -6.15, -6.15, -5.86, -5.21, -4.55, -4.11, -3.82, -2.91, -2.12, -1.34, 0.0, 0.0, 0.89, 1.34, 1.7, 2.12, 2.17, 2.6, 2.68, 3.13, 3.13, 3.13, 3.13, 3.13, 3.53, 3.98, 4.3, 3.87, 3.87, 3.6, 3.6, 3.6, 3.35, 3.35, 3.35, 3.09, 3.16, 3.16, 3.16, 3.48, 3.48, 3.48, 3.49, 5.31, 5.31, 5.31, 5.31, 4.14, 4.58, 4.42, 2.82, 0.95, 0.0, 0.0, 1.49, 3.4, 3.48, 1.27, -1.98, -2.16, -2.0, -2.68, -2.68, -3.6, -4.02, -4.82, -5.2, -5.6, -4.54, -4.11, -2.99, -1.99, -2.84, -3.58, -4.02, -4.47, -4.47, -4.47, -9.76, -9.76, -9.38, -9.48, -9.1, -8.93, -8.55, -8.55, -8.0, -8.0, -7.64, -7.44, -7.44, -6.87, -6.87, -6.87, -6.87, -6.79, -6.79, -7.07, -6.7, -6.51, -6.15, -5.86, -5.21, -4.55, -3.88, -3.2, -2.4, -1.7, -0.63, 0.0, 0.45, 0.89, 1.34, 1.79, 2.24, 2.68, 2.68, 2.68, 2.68, 3.13, 3.07, 3.07, 3.09, 3.53, 3.97, 3.87, 3.82, 3.6, 3.6, 3.35, 3.35, 3.35, 3.35, 2.84, 3.16, 3.16, 3.16, 2.86, 3.48, 3.48, 3.2, 5.69, 5.31, 5.31, 5.31, 5.31, 4.87, 3.55, 2.64, 0.95, 0.0, 0.0, 1.01, 2.67, 4.26, 4.11, -0.0, -3.22, -1.99, -2.0, -2.68, -4.0, -4.02, -4.0, -4.29, -4.54, -4.11, -3.79, -3.22, -1.19, -1.13, -3.2, -4.02, -4.47, -4.47, -4.47, -9.76, -9.76, -9.38, -9.21, -8.84, -8.93, -8.93, -8.55, -8.37, -8.0, -8.0, -7.8, -7.44, -7.44, -7.21, -6.87, -6.87, -6.87, -6.87, -6.79, -6.79, -6.44, -6.23, -5.93, -5.59, -4.94, -4.55, -3.88, -2.79, -2.15, -1.26, -0.63, 0.0, 0.63, 1.2, 1.79, 2.24, 2.24, 2.68, 2.68, 2.68, 3.07, 3.07, 2.91, 3.39, 3.53, 3.53, 3.87, 3.82, 3.6, 3.35, 3.35, 3.35, 3.35, 3.35, 3.16, 3.16, 3.16, 3.16, 3.16, 2.86, 3.48, 3.48, 3.49, 5.31, 5.31, 3.8, 3.4, 3.77, 2.82, 1.58, 0.95, 0.89, 0.94, 0.94, 1.84, 2.83, 3.8, 2.16, -1.4, -2.99, -2.53, -3.58, -4.0, -4.02, -3.9, -3.16, -3.22, -2.76, -3.22, -1.84, 0.0, 0.0, -3.13, -3.58, -4.47, -4.47, -4.47, -9.76, -9.76, -9.76, -9.21, -9.21, -8.84, -8.65, -8.55, -8.55, -8.0, -8.0, -8.0, -7.51, -7.17, -7.17, -6.92, -6.92, -6.87, -6.87, -6.87, -6.79, -6.79, -6.57, -6.23, -5.65, -5.59, -4.94, -4.65, -3.78, -2.79, -1.61, -0.57, 0.0, 0.6, 1.26, 1.49, 2.12, 2.17, 2.6, 2.63, 3.07, 3.07, 2.91, 2.91, 3.39, 3.39, 3.82, 3.82, 3.82, 3.6, 3.35, 3.35, 3.35, 3.35, 3.14, 3.16, 3.16, 3.16, 3.16, 3.16, 2.86, 2.86, 3.15, 3.2, 3.49, 3.8, 2.69, 2.67, 1.84, 1.84, 0.94, 0.94, 0.89, 0.89, 1.75, 1.75, 1.75, 2.83, 3.6, 1.05, -3.2, -4.11, -3.79, -3.58, -3.9, -3.58, -2.98, -2.0, -1.05, -1.52, 0.0, 0.0, 0.0, -2.21, -3.58, -4.47, -4.47, -4.47, -9.76, -9.76, -9.76, -9.21, -9.21, -9.21, -8.65, -8.65, -8.29, -8.37, -8.0, -8.0, -7.51, -7.51, -7.51, -7.17, -6.92, -6.92, -6.59, -6.87, -6.87, -6.87, -6.52, -6.28, -5.95, -5.98, -5.06, -4.74, -4.11, -3.48, -2.51, -1.4, 0.0, 0.0, 0.71, 1.24, 1.58, 2.4, 2.4, 2.49, 2.91, 2.91, 2.91, 2.68, 3.2, 3.6, 3.82, 3.82, 3.82, 3.6, 3.35, 3.35, 3.35, 3.35, 2.84, 3.16, 3.16, 3.16, 3.16, 3.16, 2.86, 2.86, 2.86, 3.48, 3.22, 3.8, 2.54, 2.99, 2.99, 3.77, 1.84, 1.75, 1.75, 1.84, 0.94, 1.75, 1.75, 2.83, 3.45, 2.69, 0.0, -3.93, -3.91, -3.58, -3.6, -3.58, -3.39, -1.98, -1.19, 0.0, 0.0, 0.0, -1.27, -1.27, -2.53, -3.82, -3.82, -3.82, -9.76, -9.76, -9.76, -9.58, -9.21, -9.21, -8.65, -8.65, -8.29, -8.08, -8.08, -7.73, -7.73, -7.51, -7.51, -7.51, -6.92, -6.92, -6.92, -6.92, -6.92, -6.87, -6.87, -6.87, -6.28, -6.01, -5.38, -5.06, -4.12, -3.49, -2.86, -1.8, -0.61, 0.0, 0.53, 1.2, 1.2, 1.61, 2.15, 2.5, 2.68, 2.68, 2.68, 3.07, 3.07, 3.6, 3.6, 3.82, 3.82, 3.6, 3.35, 3.14, 2.84, 3.14, 2.84, 3.16, 3.16, 3.16, 3.16, 3.16, 2.86, 2.86, 2.86, 3.15, 3.49, 4.37, 5.31, 5.31, 5.31, 3.6, 2.83, 2.54, 1.84, 0.94, 0.89, 0.89, 1.84, 2.83, 3.45, 3.32, 0.89, -3.58, -3.91, -3.48, -4.0, -3.47, -3.13, -2.98, -0.98, 0.0, 0.0, 0.0, -1.08, -1.27, -2.23, -3.35, -3.35, -3.35, -9.5, -9.5, -9.5, -9.3, -9.21, -9.21, -9.01, -8.65, -8.65, -8.08, -8.08, -8.08, -7.73, -7.51, -7.51, -7.51, -7.51, -7.25, -6.92, -6.92, -6.92, -6.92, -6.59, -6.59, -6.32, -6.01, -5.71, -5.38, -4.47, -4.12, -2.82, -2.2, -1.11, 0.0, 0.0, 0.51, 1.16, 1.61, 1.88, 2.21, 2.21, 2.5, 2.68, 2.79, 2.79, 3.35, 3.6, 3.82, 3.39, 3.6, 3.14, 2.84, 2.84, 2.84, 2.84, 3.16, 3.16, 3.16, 3.16, 3.16, 2.86, 2.86, 2.86, 2.86, 3.48, 4.58, 5.24, 5.53, 4.5, 3.6, 2.83, 1.75, 0.89, 0.89, 0.89, 1.84, 1.95, 2.69, 3.45, 2.57, 1.84, -1.41, -4.8, -4.11, -3.93, -3.6, -2.97, -2.98, -2.98, -2.53, -1.13, 0.0, 0.0, 0.0, -1.27, -2.23, -2.23, -2.23, -9.5, -9.86, -9.5, -9.3, -9.3, -9.21, -9.21, -8.65, -8.65, -8.65, -8.08, -8.08, -8.08, -8.08, -7.51, -7.51, -7.23, -6.95, -6.95, -6.64, -6.92, -6.92, -6.92, -6.92, -6.32, -6.32, -5.71, -5.1, -4.47, -4.1, -3.45, -2.36, -1.19, -0.55, 0.0, 0.57, 0.66, 1.13, 1.84, 1.84, 2.53, 2.53, 2.53, 2.53, 2.79, 3.14, 3.6, 3.6, 3.2, 3.07, 3.14, 2.84, 3.16, 2.84, 2.84, 2.84, 3.16, 3.16, 3.16, 3.16, 2.86, 2.86, 2.86, 2.86, 2.86, 4.74, 4.87, 5.24, 5.1, 4.26, 3.6, 2.67, 0.94, 0.0, 0.89, 1.75, 2.69, 2.69, 2.83, 2.57, 1.67, 0.0, -3.58, -3.48, -3.49, -3.39, -3.13, -2.21, -2.53, -2.98, -3.39, -2.21, -0.87, 0.0, -1.08, -2.48, -2.48, -2.48, -9.86, -9.86, -9.5, -9.3, -9.3, -8.94, -9.21, -9.01, -8.65, -8.65, -8.44, -8.08, -8.08, -8.08, -7.85, -7.23, -7.23, -7.23, -6.95, -6.95, -6.95, -6.64, -6.92, -6.64, -6.32, -6.32, -5.72, -5.1, -4.73, -4.08, -3.42, -2.32, -1.67, -0.59, 0.0, 0.0, 0.55, 1.11, 1.27, 1.6, 1.84, 2.23, 2.23, 2.23, 2.23, 2.84, 3.35, 3.6, 3.6, 3.07, 3.14, 2.84, 3.16, 2.84, 2.84, 2.84, 2.86, 2.86, 2.86, 3.16, 3.16, 2.86, 2.86, 2.86, 3.16, 2.86, 3.72, 5.37, 5.24, 5.53, 5.53, 4.26, 3.4, 2.82, 0.89, 2.54, 3.45, 3.63, 1.84, 0.94, 0.94, 0.0, -1.13, -1.13, -2.95, -3.39, -3.13, -2.8, -2.21, -2.53, -2.97, -2.97, -2.84, -1.08, -1.08, -1.08, -1.08, -1.08, -9.86, -9.86, -9.3, -9.3, -9.3, -8.94, -8.94, -9.01, -8.65, -8.65, -8.65, -8.44, -8.08, -7.81, -7.55, -7.55, -7.55, -7.23, -6.95, -6.95, -6.95, -6.95, -6.34, -6.34, -6.04, -5.72, -5.72, -5.1, -4.46, -4.05, -3.42, -2.77, -1.65, -1.14, -0.59, 0.0, 0.0, 0.55, 1.11, 1.27, 1.8, 1.6, 2.23, 2.23, 2.51, 2.84, 3.16, 3.35, 3.35, 3.35, 3.14, 2.84, 2.86, 3.16, 2.84, 2.51, 2.23, 2.86, 2.86, 2.86, 2.86, 2.86, 2.86, 2.86, 2.86, 2.86, 3.91, 4.74, 4.87, 4.68, 4.68, 4.68, 4.68, 5.24, 3.77, 4.68, 4.5, 3.45, 1.84, 0.89, 0.89, 0.94, 1.27, -1.98, -2.95, -3.6, -3.13, -2.68, -2.21, -1.13, -2.21, -2.8, -2.84, -2.48, -2.48, -2.48, -2.48, -2.48, -9.86, -9.86, -9.3, -9.3, -9.3, -8.94, -8.94, -8.73, -8.73, -8.38, -8.38, -8.15, -8.15, -7.81, -7.81, -7.55, -7.55, -7.55, -7.23, -6.95, -6.95, -6.95, -6.34, -6.34, -6.04, -5.72, -5.72, -5.1, -4.71, -4.05, -3.4, -2.75, -2.29, -1.12, -0.58, 0.0, 0.0, 0.0, 0.55, 0.57, 1.11, 1.8, 1.8, 2.23, 2.23, 2.23, 3.16, 3.43, 3.35, 3.35, 2.84, 2.84, 2.86, 2.86, 2.48, 2.23, 2.23, 2.48, 2.48, 2.48, 2.23, 2.23, 2.86, 2.86, 2.86, 2.23, 2.84, 2.86, 3.55, 3.4, 3.6, 3.6, 4.5, 5.1, 5.53, 5.69, 4.68, 2.67, 1.84, 0.89, 1.73, 2.67, -0.0, -1.84, -3.48, -3.6, -3.39, -3.13, -2.8, -2.21, -2.21, -2.21, -2.53, -2.48, -2.48, -1.27, -1.27, -1.27, -9.86, -9.86, -9.3, -9.3, -9.3, -9.3, -8.94, -8.73, -8.73, -8.38, -8.38, -8.38, -8.15, -8.15, -7.81, -7.55, -7.55, -7.55, -7.23, -6.95, -6.95, -6.95, -6.34, -6.34, -5.72, -5.72, -5.36, -5.1, -4.71, -4.05, -3.4, -2.92, -2.26, -1.76, -1.12, -0.58, 0.0, 0.0, 0.0, 0.55, 0.57, 1.11, 1.8, 1.8, 1.8, 2.23, 2.58, 2.84, 3.14, 2.84, 2.84, 2.86, 2.86, 2.86, 2.48, 2.48, 2.48, 2.48, 2.48, 2.23, 2.23, 2.23, 2.23, 2.23, 2.48, 2.48, 2.23, 1.8, 2.64, 2.67, 2.83, 3.6, 3.6, 4.5, 4.26, 3.6, 3.77, 2.99, 2.82, 2.82, 3.55, 4.68, 1.9, -1.98, -3.63, -3.93, -3.35, -3.82, -3.13, -2.97, -2.21, -2.21, -1.6, -1.27, -1.41, -1.27, -1.27, -1.27, -9.86, -9.86, -9.3, -9.3, -9.3, -9.3, -8.94, -8.73, -8.73, -8.73, -8.38, -8.38, -8.15, -8.15, -7.81, -7.55, -7.55, -7.55, -7.55, -6.95, -6.95, -6.95, -6.34, -5.72, -5.72, -5.72, -5.1, -4.71, -4.46, -4.05, -3.4, -2.92, -2.26, -1.76, -1.12, -0.58, -0.58, 0.0, 0.0, 0.0, 0.55, 1.23, 1.76, 1.58, 1.76, 1.76, 2.23, 2.84, 3.14, 2.84, 2.84, 2.86, 2.48, 2.48, 2.48, 2.48, 2.48, 2.48, 2.48, 2.23, 2.23, 2.23, 2.23, 2.23, 2.23, 2.48, 1.8, 1.8, 1.73, 2.67, 2.83, 2.83, 3.6, 3.6, 4.26, 3.6, 1.84, 1.84, 1.84, 3.77, 4.42, 5.53, 4.11, -0.0, -2.8, -3.22, -2.84, -2.98, -3.39, -3.58, -2.97, -2.8, -2.21, -1.27, -1.08, -1.27, -1.27, -1.27, -9.86, -9.86, -9.3, -9.3, -9.3, -9.3, -8.94, -8.73, -8.73, -8.73, -8.38, -8.38, -8.15, -8.15, -8.15, -7.55, -7.55, -7.55, -7.27, -6.95, -6.95, -6.65, -6.34, -5.72, -5.72, -5.1, -5.1, -4.71, -4.05, -4.05, -3.4, -2.92, -2.26, -2.29, -1.76, -1.12, -0.58, -0.53, 0.0, 0.0, 0.0, 0.55, 1.23, 1.76, 1.76, 1.76, 2.22, 2.51, 2.53, 2.53, 2.51, 2.48, 2.48, 2.48, 2.48, 2.48, 2.48, 2.48, 2.48, 2.48, 2.48, 2.23, 2.23, 1.8, 1.8, 1.8, 1.58, 1.58, 1.08, 1.73, 2.67, 3.4, 3.77, 4.42, 3.77, 3.4, 2.67, 0.94, 1.84, 2.67, 4.87, 4.68, 4.68, 4.02, -2.16, -3.22, -3.58, -3.6, -3.9, -4.02, -3.58, -3.39, -2.98, -2.23, -1.27, -1.27, -1.27, -1.27, -9.86, -9.86, -9.66, -9.3, -9.3, -9.3, -9.3, -8.73, -8.73, -8.73, -8.38, -8.38, -8.15, -8.15, -8.15, -7.81, -7.55, -7.55, -7.27, -6.95, -6.95, -6.34, -6.34, -5.72, -5.72, -5.1, -4.71, -4.46, -4.05, -4.05, -3.4, -2.92, -2.75, -2.29, -1.76, -1.12, -1.14, -0.58, 0.0, 0.0, 0.0, 0.55, 1.08, 1.23, 1.23, 1.23, 1.76, 2.23, 2.51, 2.23, 2.51, 2.48, 2.48, 2.48, 2.48, 2.48, 2.22, 2.22, 2.22, 2.22, 2.22, 2.48, 2.48, 1.8, 1.8, 1.27, 1.11, 1.11, 1.08, 1.84, 3.55, 3.4, 3.77, 3.77, 3.55, 3.77, 3.4, 3.77, 2.67, 4.42, 4.42, 3.77, 4.26, 4.29, -0.0, -2.8, -3.79, -3.58, -3.6, -3.9, -4.02, -3.58, -3.39, -2.84, -2.23, -1.27, -1.27, -1.27, -9.86, -9.86, -9.66, -9.3, -9.3, -9.3, -9.3, -8.73, -8.73, -8.73, -8.73, -8.38, -8.15, -8.15, -8.15, -7.81, -7.55, -7.55, -6.95, -6.95, -6.95, -6.34, -6.34, -5.72, -5.36, -5.1, -4.71, -4.46, -4.05, -4.05, -3.4, -2.92, -2.75, -2.26, -1.76, -1.65, -1.12, -0.58, -0.53, 0.0, 0.0, 0.61, 0.55, 1.08, 1.08, 1.08, 1.76, 2.48, 2.51, 2.51, 2.51, 2.0, 2.22, 2.22, 2.22, 2.22, 2.22, 2.22, 2.44, 2.44, 2.44, 2.22, 2.22, 1.76, 1.8, 1.27, 1.11, 1.11, 0.57, 1.08, 1.7, 2.67, 2.67, 3.55, 3.55, 3.77, 3.4, 3.77, 3.55, 4.42, 3.77, 3.4, 3.6, 4.89, 1.27, -2.8, -3.49, -3.58, -4.0, -4.0, -3.9, -3.58, -3.39, -2.53, -2.53, -1.6, -1.6, -1.6, -9.66, -9.66, -9.66, -9.3, -9.02, -9.3, -9.3, -8.73, -8.73, -8.73, -8.73, -8.15, -8.15, -8.15, -8.15, -7.55, -7.55, -7.55, -6.95, -6.95, -6.34, -6.34, -6.34, -5.72, -5.1, -5.1, -4.71, -4.46, -4.05, -4.05, -3.4, -3.4, -2.75, -2.26, -2.29, -1.76, -1.12, -1.12, -0.58, 0.0, 0.0, 0.0, 0.55, 0.55, 0.55, 1.08, 1.23, 1.8, 2.23, 2.23, 1.8, 1.8, 1.76, 1.76, 1.76, 1.76, 2.22, 2.44, 2.44, 2.44, 2.44, 2.44, 2.22, 1.76, 1.11, 1.11, 1.11, 0.57, 0.57, 0.57, 0.61, 1.73, 2.82, 2.69, 2.82, 2.67, 2.99, 3.55, 3.55, 2.99, 2.99, 2.99, 3.6, 4.58, 3.39, -1.98, -3.63, -4.29, -3.93, -4.0, -4.0, -3.9, -3.13, -2.8, -2.21, -2.21, -2.21, -2.21, -9.66, -9.66, -9.66, -9.02, -9.02, -9.02, -9.08, -8.73, -8.73, -8.73, -8.38, -8.15, -8.15, -8.15, -8.15, -7.55, -7.55, -7.23, -6.95, -6.95, -6.34, -6.34, -5.72, -5.72, -5.1, -5.1, -4.71, -4.46, -4.05, -4.05, -3.4, -3.4, -2.75, -2.75, -2.26, -1.76, -1.76, -1.12, -0.58, -0.58, 0.0, 0.0, 0.0, 0.55, 0.55, 0.55, 1.23, 1.58, 1.8, 1.8, 1.58, 1.76, 1.76, 1.76, 1.76, 1.76, 2.22, 2.44, 2.44, 2.44, 2.44, 1.76, 1.76, 1.76, 1.23, 1.11, 0.57, 0.57, 0.57, 0.0, 0.0, 0.54, 1.26, 1.4, 1.73, 1.73, 1.73, 2.99, 2.67, 2.67, 2.67, 2.99, 3.77, 4.68, 4.65, -0.0, -2.8, -4.11, -3.79, -4.29, -4.8, -4.4, -3.47, -3.13, -2.97, -3.2, -3.2, -3.2, -9.66, -9.66, -9.66, -9.02, -9.02, -9.02, -9.08, -8.73, -8.73, -8.73, -8.38, -8.15, -8.15, -8.15, -8.15, -7.55, -7.55, -7.23, -6.95, -6.95, -6.34, -6.34, -5.72, -5.72, -5.1, -5.1, -4.71, -4.46, -4.05, -4.05, -3.4, -3.4, -2.75, -2.75, -2.26, -1.76, -1.76, -1.12, -0.58, -0.58, 0.0, 0.0, 0.0, 0.55, 0.55, 0.55, 1.23, 1.58, 1.8, 1.8, 1.58, 1.76, 1.76, 1.76, 1.76, 1.76, 2.22, 2.44, 2.44, 2.44, 2.44, 1.76, 1.76, 1.76, 1.23, 1.11, 0.57, 0.57, 0.57, 0.0, 0.0, 0.54, 1.26, 1.4, 1.73, 1.73, 2.82, 2.99, 2.67, 2.67, 2.67, 3.4, 3.77, 4.26, 4.42, 3.72, -0.0, -2.16, -2.99, -3.79, -4.29, -3.93, -4.0, -4.02, -4.02, -3.58, -3.58, -3.58]}]